Wetterdaten: Donnerstag, 20.10.2022
Datum Zeit Temp. Aussen Temp. o. S. Temp +5cm Feuchte Auss Luftdruck Regen Sonnenschein Regendauer Solar Windben Empfang
20.10.2022 00:00 10,9 C 10,0 C 7,2 C 91 % 1020,3 hPa 0,0 l/m 0 min 0 min 0 W/m 9,7 km/h (2 Bft) 97,87 %
20.10.2022 00:02 10,9 C 10,0 C 7,2 C 91 % 1020,3 hPa 0,0 l/m 0 min 0 min 0 W/m 6,4 km/h (2 Bft) 95,45 %
20.10.2022 00:04 10,9 C 10,0 C 7,2 C 91 % 1020,2 hPa 0,0 l/m 0 min 0 min 0 W/m 3,2 km/h (1 Bft) 97,83 %
20.10.2022 00:08 10,9 C 10,0 C 7,2 C 91 % 1020,2 hPa 0,0 l/m 0 min 0 min 0 W/m 12,9 km/h (3 Bft) 95,83 %
20.10.2022 00:10 10,9 C 10,0 C 7,2 C 91 % 1020,2 hPa 0,0 l/m 0 min 0 min 0 W/m 3,2 km/h (1 Bft) 93,62 %
20.10.2022 00:12 10,9 C 10,0 C 7,2 C 91 % 1020,2 hPa 0,0 l/m 0 min 0 min 0 W/m 6,4 km/h (2 Bft) 97,87 %
20.10.2022 00:14 10,9 C 10,0 C 7,2 C 91 % 1020,1 hPa 0,0 l/m 0 min 0 min 0 W/m 6,4 km/h (2 Bft) 93,48 %
20.10.2022 00:16 10,9 C 10,0 C 7,2 C 91 % 1020,1 hPa 0,0 l/m 0 min 0 min 0 W/m 6,4 km/h (2 Bft) 95,74 %
20.10.2022 00:18 10,9 C 10,0 C 7,2 C 91 % 1020,0 hPa 0,0 l/m 0 min 0 min 0 W/m 3,2 km/h (1 Bft) 97,37 %
20.10.2022 00:20 10,9 C 10,0 C 7,2 C 91 % 1020,0 hPa 0,0 l/m 0 min 0 min 0 W/m 6,4 km/h (2 Bft) 97,87 %
20.10.2022 00:22 10,9 C 10,0 C 7,2 C 91 % 1020,0 hPa 0,0 l/m 0 min 0 min 0 W/m 9,7 km/h (2 Bft) 97,87 %
20.10.2022 00:24 10,9 C 10,0 C 7,2 C 91 % 1019,9 hPa 0,0 l/m 0 min 0 min 0 W/m 9,7 km/h (2 Bft) 97,87 %
20.10.2022 00:30 10,8 C 10,0 C 7,2 C 91 % 1019,8 hPa 0,0 l/m 0 min 0 min 0 W/m 12,9 km/h (3 Bft) 100,00 %
20.10.2022 00:32 10,8 C 10,0 C 7,2 C 91 % 1019,8 hPa 0,0 l/m 0 min 0 min 0 W/m 6,4 km/h (2 Bft) 93,62 %
20.10.2022 00:34 10,8 C 10,0 C 7,2 C 91 % 1019,8 hPa 0,0 l/m 0 min 0 min 0 W/m 6,4 km/h (2 Bft) 93,75 %
20.10.2022 00:36 10,8 C 10,0 C 7,2 C 91 % 1019,7 hPa 0,0 l/m 0 min 0 min 0 W/m 6,4 km/h (2 Bft) 93,62 %
20.10.2022 00:38 10,8 C 10,0 C 7,2 C 92 % 1019,7 hPa 0,0 l/m 0 min 0 min 0 W/m 6,4 km/h (2 Bft) 89,36 %
20.10.2022 00:40 10,8 C 10,0 C 7,2 C 92 % 1019,7 hPa 0,0 l/m 0 min 0 min 0 W/m 6,4 km/h (2 Bft) 91,49 %
20.10.2022 00:42 10,8 C 10,0 C 7,2 C 92 % 1019,6 hPa 0,0 l/m 0 min 0 min 0 W/m 3,2 km/h (1 Bft) 82,61 %
20.10.2022 00:44 10,8 C 10,0 C 7,2 C 92 % 1019,5 hPa 0,0 l/m 0 min 0 min 0 W/m 6,4 km/h (2 Bft) 95,74 %
20.10.2022 00:46 10,8 C 10,0 C 7,2 C 92 % 1019,5 hPa 0,0 l/m 0 min 0 min 0 W/m 6,4 km/h (2 Bft) 97,87 %
20.10.2022 00:48 10,8 C 10,0 C 7,2 C 92 % 1019,5 hPa 0,0 l/m 0 min 0 min 0 W/m 6,4 km/h (2 Bft) 97,87 %
20.10.2022 00:50 10,8 C 10,0 C 7,2 C 92 % 1019,5 hPa 0,0 l/m 0 min 0 min 0 W/m 6,4 km/h (2 Bft) 73,91 %
20.10.2022 00:52 10,8 C 10,0 C 7,2 C 92 % 1019,4 hPa 0,0 l/m 0 min 0 min 0 W/m 6,4 km/h (2 Bft) 82,98 %
20.10.2022 00:54 10,8 C 10,0 C 7,2 C 92 % 1019,4 hPa 0,0 l/m 0 min 0 min 0 W/m 6,4 km/h (2 Bft) 80,43 %
20.10.2022 00:56 10,8 C 10,0 C 7,2 C 92 % 1019,3 hPa 0,0 l/m 0 min 0 min 0 W/m 6,4 km/h (2 Bft) 57,45 %
20.10.2022 00:58 10,8 C 10,0 C 7,2 C 92 % 1019,3 hPa 0,0 l/m 0 min 0 min 0 W/m 6,4 km/h (2 Bft) 72,34 %
20.10.2022 01:00 10,8 C 10,0 C 7,2 C 92 % 1019,2 hPa 0,0 l/m 0 min 0 min 0 W/m 6,4 km/h (2 Bft) 100,00 %
20.10.2022 01:02 10,8 C 10,0 C 7,2 C 92 % 1019,2 hPa 0,0 l/m 0 min 0 min 0 W/m 6,4 km/h (2 Bft) 100,00 %
20.10.2022 01:04 10,7 C 10,0 C 7,2 C 92 % 1019,2 hPa 0,0 l/m 0 min 0 min 0 W/m 6,4 km/h (2 Bft) 100,00 %
20.10.2022 01:06 10,8 C 10,0 C 7,2 C 92 % 1019,2 hPa 0,0 l/m 0 min 0 min 0 W/m 6,4 km/h (2 Bft) 95,65 %
20.10.2022 01:08 10,7 C 10,0 C 6,7 C 92 % 1019,1 hPa 0,0 l/m 0 min 0 min 0 W/m 6,4 km/h (2 Bft) 95,74 %
20.10.2022 01:10 10,7 C 10,0 C 7,2 C 92 % 1019,1 hPa 0,0 l/m 0 min 0 min 0 W/m 9,7 km/h (2 Bft) 100,00 %
20.10.2022 01:12 10,7 C 10,0 C 6,7 C 92 % 1019,1 hPa 0,0 l/m 0 min 0 min 0 W/m 6,4 km/h (2 Bft) 98,15 %
20.10.2022 01:14 10,7 C 10,0 C 6,7 C 92 % 1019,0 hPa 0,0 l/m 0 min 0 min 0 W/m 3,2 km/h (1 Bft) 97,87 %
20.10.2022 01:16 10,7 C 10,0 C 6,7 C 92 % 1019,0 hPa 0,0 l/m 0 min 0 min 0 W/m 6,4 km/h (2 Bft) 97,87 %
20.10.2022 01:18 10,7 C 10,0 C 6,7 C 92 % 1019,0 hPa 0,0 l/m 0 min 0 min 0 W/m 6,4 km/h (2 Bft) 91,49 %
20.10.2022 01:20 10,7 C 10,0 C 6,7 C 93 % 1019,0 hPa 0,0 l/m 0 min 0 min 0 W/m 6,4 km/h (2 Bft) 97,87 %
20.10.2022 01:22 10,7 C 10,0 C 6,7 C 93 % 1018,9 hPa 0,0 l/m 0 min 0 min 0 W/m 6,4 km/h (2 Bft) 94,29 %
20.10.2022 01:24 10,7 C 10,0 C 7,2 C 93 % 1019,0 hPa 0,0 l/m 0 min 0 min 0 W/m 3,2 km/h (1 Bft) 94,00 %
20.10.2022 01:26 10,7 C 10,0 C 7,2 C 93 % 1018,9 hPa 0,0 l/m 0 min 0 min 0 W/m 6,4 km/h (2 Bft) 100,00 %
20.10.2022 01:28 10,7 C 10,0 C 6,7 C 93 % 1018,9 hPa 0,0 l/m 0 min 0 min 0 W/m 6,4 km/h (2 Bft) 95,83 %
20.10.2022 01:30 10,7 C 10,0 C 6,7 C 93 % 1018,8 hPa 0,0 l/m 0 min 0 min 0 W/m 9,7 km/h (2 Bft) 97,87 %
20.10.2022 01:32 10,7 C 10,0 C 7,2 C 93 % 1018,8 hPa 0,0 l/m 0 min 0 min 0 W/m 6,4 km/h (2 Bft) 100,00 %
20.10.2022 01:34 10,7 C 10,0 C 7,2 C 93 % 1018,7 hPa 0,0 l/m 0 min 0 min 0 W/m 6,4 km/h (2 Bft) 100,00 %
20.10.2022 01:36 10,7 C 10,0 C 7,2 C 93 % 1018,8 hPa 0,0 l/m 0 min 0 min 0 W/m 6,4 km/h (2 Bft) 95,65 %
20.10.2022 01:38 10,7 C 10,0 C 7,2 C 93 % 1018,7 hPa 0,0 l/m 0 min 0 min 0 W/m 6,4 km/h (2 Bft) 97,87 %
20.10.2022 01:40 10,7 C 10,0 C 7,2 C 93 % 1018,8 hPa 0,0 l/m 0 min 0 min 0 W/m 3,2 km/h (1 Bft) 97,87 %
20.10.2022 01:42 10,7 C 10,0 C 7,2 C 93 % 1018,8 hPa 0,0 l/m 0 min 0 min 0 W/m 12,9 km/h (3 Bft) 95,74 %
20.10.2022 01:44 10,7 C 10,0 C 7,2 C 93 % 1018,8 hPa 0,0 l/m 0 min 0 min 0 W/m 6,4 km/h (2 Bft) 95,74 %
20.10.2022 01:46 10,7 C 10,0 C 7,2 C 93 % 1018,8 hPa 0,0 l/m 0 min 0 min 0 W/m 9,7 km/h (2 Bft) 97,87 %
20.10.2022 01:48 10,7 C 10,0 C 7,2 C 93 % 1018,8 hPa 0,0 l/m 0 min 0 min 0 W/m 6,4 km/h (2 Bft) 97,83 %
20.10.2022 01:50 10,7 C 10,0 C 7,2 C 93 % 1018,8 hPa 0,0 l/m 0 min 0 min 0 W/m 6,4 km/h (2 Bft) 97,87 %
20.10.2022 01:52 10,7 C 10,0 C 7,2 C 93 % 1018,7 hPa 0,0 l/m 0 min 0 min 0 W/m 6,4 km/h (2 Bft) 97,14 %
20.10.2022 01:54 10,7 C 10,0 C 7,2 C 93 % 1018,8 hPa 0,0 l/m 0 min 0 min 0 W/m 6,4 km/h (2 Bft) 90,20 %
20.10.2022 01:56 10,7 C 10,0 C 7,2 C 93 % 1018,7 hPa 0,0 l/m 0 min 0 min 0 W/m 6,4 km/h (2 Bft) 97,87 %
20.10.2022 01:58 10,7 C 10,0 C 7,2 C 93 % 1018,7 hPa 0,0 l/m 0 min 0 min 0 W/m 6,4 km/h (2 Bft) 97,87 %
20.10.2022 02:00 10,7 C 10,0 C 7,2 C 93 % 1018,7 hPa 0,0 l/m 0 min 0 min 0 W/m 6,4 km/h (2 Bft) 93,62 %
20.10.2022 02:02 10,7 C 10,0 C 7,2 C 94 % 1018,5 hPa 0,0 l/m 0 min 0 min 0 W/m 6,4 km/h (2 Bft) 97,87 %
20.10.2022 02:04 10,8 C 10,0 C 7,2 C 94 % 1018,5 hPa 0,0 l/m 0 min 0 min 0 W/m 6,4 km/h (2 Bft) 94,34 %
20.10.2022 02:06 10,8 C 10,0 C 7,2 C 94 % 1018,5 hPa 0,0 l/m 0 min 0 min 0 W/m 9,7 km/h (2 Bft) 96,00 %
20.10.2022 02:08 10,8 C 10,0 C 7,2 C 93 % 1018,5 hPa 0,0 l/m 0 min 0 min 0 W/m 6,4 km/h (2 Bft) 94,29 %
20.10.2022 02:10 10,8 C 10,0 C 7,2 C 93 % 1018,4 hPa 0,0 l/m 0 min 0 min 0 W/m 16,1 km/h (3 Bft) 93,62 %
20.10.2022 02:14 10,8 C 10,0 C 7,2 C 94 % 1018,4 hPa 0,0 l/m 0 min 0 min 0 W/m 12,9 km/h (3 Bft) 93,75 %
20.10.2022 02:16 10,8 C 10,0 C 7,2 C 94 % 1018,4 hPa 0,0 l/m 0 min 0 min 0 W/m 6,4 km/h (2 Bft) 97,87 %
20.10.2022 02:18 10,8 C 10,6 C 7,2 C 94 % 1018,3 hPa 0,0 l/m 0 min 0 min 0 W/m 12,9 km/h (3 Bft) 95,24 %
20.10.2022 02:23 10,9 C 10,6 C 7,8 C 94 % 1018,0 hPa 0,0 l/m 0 min 0 min 0 W/m 12,9 km/h (3 Bft) 89,13 %
20.10.2022 02:24 11,0 C 10,6 C 7,8 C 94 % 1018,0 hPa 0,0 l/m 0 min 0 min 0 W/m 19,3 km/h (3 Bft) 100,00 %
20.10.2022 02:26 11,1 C 10,6 C 7,8 C 94 % 1018,0 hPa 0,0 l/m 0 min 0 min 0 W/m 16,1 km/h (3 Bft) 95,74 %
20.10.2022 02:28 11,1 C 10,6 C 7,8 C 94 % 1018,0 hPa 0,0 l/m 0 min 0 min 0 W/m 19,3 km/h (3 Bft) 91,49 %
20.10.2022 02:30 11,2 C 10,6 C 7,8 C 94 % 1017,9 hPa 0,0 l/m 0 min 0 min 0 W/m 19,3 km/h (3 Bft) 89,36 %
20.10.2022 02:32 11,2 C 10,6 C 7,8 C 93 % 1017,9 hPa 0,0 l/m 0 min 0 min 0 W/m 22,5 km/h (4 Bft) 95,74 %
20.10.2022 02:34 11,2 C 10,6 C 7,8 C 93 % 1018,0 hPa 0,0 l/m 0 min 0 min 0 W/m 12,9 km/h (3 Bft) 97,83 %
20.10.2022 02:36 11,3 C 10,6 C 7,8 C 93 % 1018,0 hPa 0,0 l/m 0 min 0 min 0 W/m 22,5 km/h (4 Bft) 95,74 %
20.10.2022 02:38 11,3 C 10,6 C 7,8 C 93 % 1017,9 hPa 0,0 l/m 0 min 0 min 0 W/m 12,9 km/h (3 Bft) 95,74 %
20.10.2022 02:40 11,3 C 10,6 C 7,8 C 93 % 1017,9 hPa 0,0 l/m 0 min 0 min 0 W/m 16,1 km/h (3 Bft) 96,30 %
20.10.2022 02:42 11,3 C 10,6 C 7,8 C 93 % 1017,8 hPa 0,0 l/m 0 min 0 min 0 W/m 12,9 km/h (3 Bft) 91,30 %
20.10.2022 02:44 11,3 C 10,6 C 7,8 C 93 % 1017,9 hPa 0,0 l/m 0 min 0 min 0 W/m 16,1 km/h (3 Bft) 93,62 %
20.10.2022 02:46 11,4 C 10,6 C 7,8 C 93 % 1018,0 hPa 0,0 l/m 0 min 0 min 0 W/m 19,3 km/h (3 Bft) 91,49 %
20.10.2022 02:48 11,4 C 10,6 C 7,8 C 93 % 1017,9 hPa 0,0 l/m 0 min 0 min 0 W/m 9,7 km/h (2 Bft) 100,00 %
20.10.2022 02:50 11,4 C 10,6 C 7,8 C 93 % 1017,8 hPa 0,0 l/m 0 min 0 min 0 W/m 19,3 km/h (3 Bft) 95,74 %
20.10.2022 02:52 11,3 C 10,6 C 7,8 C 92 % 1017,7 hPa 0,0 l/m 0 min 0 min 0 W/m 12,9 km/h (3 Bft) 73,68 %
20.10.2022 02:54 11,3 C 10,6 C 7,8 C 92 % 1017,6 hPa 0,0 l/m 0 min 0 min 0 W/m 16,1 km/h (3 Bft) 82,98 %
20.10.2022 02:56 11,3 C 10,6 C 7,8 C 92 % 1017,6 hPa 0,0 l/m 0 min 0 min 0 W/m 12,9 km/h (3 Bft) 93,48 %
20.10.2022 02:58 11,3 C 10,6 C 7,8 C 92 % 1017,6 hPa 0,0 l/m 0 min 0 min 0 W/m 9,7 km/h (2 Bft) 95,74 %
20.10.2022 03:00 11,3 C 10,6 C 7,8 C 92 % 1017,6 hPa 0,0 l/m 0 min 0 min 0 W/m 12,9 km/h (3 Bft) 95,74 %
20.10.2022 03:02 11,3 C 10,6 C 7,8 C 92 % 1017,7 hPa 0,0 l/m 0 min 0 min 0 W/m 16,1 km/h (3 Bft) 97,87 %
20.10.2022 03:04 11,3 C 10,6 C 7,8 C 92 % 1017,7 hPa 0,0 l/m 0 min 0 min 0 W/m 19,3 km/h (3 Bft) 95,74 %
20.10.2022 03:06 11,3 C 10,6 C 7,8 C 92 % 1017,6 hPa 0,0 l/m 0 min 0 min 0 W/m 25,7 km/h (4 Bft) 91,38 %
20.10.2022 03:08 11,3 C 10,6 C 7,8 C 92 % 1017,6 hPa 0,0 l/m 0 min 0 min 0 W/m 25,7 km/h (4 Bft) 100,00 %
20.10.2022 03:10 11,3 C 10,6 C 7,8 C 92 % 1017,6 hPa 0,0 l/m 0 min 0 min 0 W/m 9,7 km/h (2 Bft) 97,96 %
20.10.2022 03:12 11,3 C 10,6 C 7,8 C 92 % 1017,6 hPa 0,0 l/m 0 min 0 min 0 W/m 12,9 km/h (3 Bft) 93,62 %
20.10.2022 03:14 11,3 C 10,6 C 7,8 C 92 % 1017,5 hPa 0,0 l/m 0 min 0 min 0 W/m 12,9 km/h (3 Bft) 97,87 %
20.10.2022 03:16 11,3 C 10,6 C 7,8 C 91 % 1017,5 hPa 0,0 l/m 0 min 0 min 0 W/m 12,9 km/h (3 Bft) 95,74 %
20.10.2022 03:18 11,3 C 10,6 C 7,8 C 91 % 1017,5 hPa 0,0 l/m 0 min 0 min 0 W/m 12,9 km/h (3 Bft) 97,87 %
20.10.2022 03:20 11,3 C 10,6 C 7,8 C 91 % 1017,3 hPa 0,0 l/m 0 min 0 min 0 W/m 12,9 km/h (3 Bft) 89,36 %
20.10.2022 03:22 11,3 C 10,6 C 7,8 C 91 % 1017,4 hPa 0,0 l/m 0 min 0 min 0 W/m 12,9 km/h (3 Bft) 95,65 %
20.10.2022 03:24 11,3 C 10,6 C 7,8 C 91 % 1017,4 hPa 0,0 l/m 0 min 0 min 0 W/m 16,1 km/h (3 Bft) 93,75 %
20.10.2022 03:26 11,3 C 10,6 C 7,8 C 91 % 1017,4 hPa 0,0 l/m 0 min 0 min 0 W/m 16,1 km/h (3 Bft) 97,87 %
20.10.2022 03:28 11,3 C 10,6 C 7,8 C 91 % 1017,3 hPa 0,0 l/m 0 min 0 min 0 W/m 12,9 km/h (3 Bft) 93,62 %
20.10.2022 03:30 11,3 C 10,6 C 7,8 C 91 % 1017,3 hPa 0,0 l/m 0 min 0 min 0 W/m 12,9 km/h (3 Bft) 91,30 %
20.10.2022 03:32 11,3 C 10,6 C 7,8 C 91 % 1017,3 hPa 0,0 l/m 0 min 0 min 0 W/m 12,9 km/h (3 Bft) 91,49 %
20.10.2022 03:34 11,3 C 10,6 C 7,8 C 91 % 1017,3 hPa 0,0 l/m 0 min 0 min 0 W/m 9,7 km/h (2 Bft) 95,74 %
20.10.2022 03:36 11,3 C 10,6 C 7,8 C 91 % 1017,3 hPa 0,0 l/m 0 min 0 min 0 W/m 12,9 km/h (3 Bft) 97,87 %
20.10.2022 03:38 11,3 C 10,6 C 7,8 C 91 % 1017,2 hPa 0,0 l/m 0 min 0 min 0 W/m 19,3 km/h (3 Bft) 95,74 %
20.10.2022 03:40 11,3 C 10,6 C 7,8 C 91 % 1017,3 hPa 0,0 l/m 0 min 0 min 0 W/m 12,9 km/h (3 Bft) 95,74 %
20.10.2022 03:42 11,3 C 10,6 C 7,8 C 91 % 1017,3 hPa 0,0 l/m 0 min 0 min 0 W/m 12,9 km/h (3 Bft) 93,48 %
20.10.2022 03:44 11,3 C 10,6 C 7,8 C 91 % 1017,3 hPa 0,0 l/m 0 min 0 min 0 W/m 12,9 km/h (3 Bft) 97,87 %
20.10.2022 03:46 11,3 C 10,6 C 7,8 C 91 % 1017,2 hPa 0,0 l/m 0 min 0 min 0 W/m 19,3 km/h (3 Bft) 100,00 %
20.10.2022 03:48 11,3 C 10,6 C 7,2 C 91 % 1017,2 hPa 0,0 l/m 0 min 0 min 0 W/m 9,7 km/h (2 Bft) 97,87 %
20.10.2022 03:50 11,3 C 10,6 C 7,8 C 91 % 1017,1 hPa 0,0 l/m 0 min 0 min 0 W/m 19,3 km/h (3 Bft) 97,87 %
20.10.2022 03:52 11,3 C 10,6 C 7,8 C 91 % 1017,0 hPa 0,0 l/m 0 min 0 min 0 W/m 16,1 km/h (3 Bft) 100,00 %
20.10.2022 03:54 11,3 C 10,6 C 7,8 C 91 % 1017,0 hPa 0,0 l/m 0 min 0 min 0 W/m 6,4 km/h (2 Bft) 100,00 %
20.10.2022 03:56 11,3 C 10,6 C 7,8 C 91 % 1016,9 hPa 0,0 l/m 0 min 0 min 0 W/m 19,3 km/h (3 Bft) 100,00 %
20.10.2022 03:58 11,3 C 10,6 C 7,8 C 91 % 1016,9 hPa 0,0 l/m 0 min 0 min 0 W/m 12,9 km/h (3 Bft) 91,49 %
20.10.2022 04:00 11,3 C 10,6 C 7,8 C 91 % 1016,9 hPa 0,0 l/m 0 min 0 min 0 W/m 12,9 km/h (3 Bft) 97,96 %
20.10.2022 04:02 11,3 C 10,6 C 7,8 C 91 % 1016,8 hPa 0,0 l/m 0 min 0 min 0 W/m 12,9 km/h (3 Bft) 97,87 %
20.10.2022 04:04 11,3 C 10,6 C 7,8 C 91 % 1016,8 hPa 0,0 l/m 0 min 0 min 0 W/m 12,9 km/h (3 Bft) 100,00 %
20.10.2022 04:06 11,3 C 10,6 C 7,8 C 91 % 1016,6 hPa 0,0 l/m 0 min 0 min 0 W/m 19,3 km/h (3 Bft) 95,74 %
20.10.2022 04:08 11,3 C 10,6 C 7,8 C 91 % 1016,6 hPa 0,0 l/m 0 min 0 min 0 W/m 16,1 km/h (3 Bft) 97,83 %
20.10.2022 04:10 11,3 C 10,6 C 7,8 C 91 % 1016,6 hPa 0,0 l/m 0 min 0 min 0 W/m 12,9 km/h (3 Bft) 95,74 %
20.10.2022 04:12 11,3 C 10,6 C 7,8 C 91 % 1016,5 hPa 0,0 l/m 0 min 0 min 0 W/m 12,9 km/h (3 Bft) 91,49 %
20.10.2022 04:14 11,3 C 10,6 C 7,8 C 91 % 1016,6 hPa 0,0 l/m 0 min 0 min 0 W/m 12,9 km/h (3 Bft) 93,62 %
20.10.2022 04:16 11,3 C 10,6 C 7,8 C 91 % 1016,5 hPa 0,0 l/m 0 min 0 min 0 W/m 16,1 km/h (3 Bft) 89,36 %
20.10.2022 04:18 11,3 C 10,6 C 7,8 C 91 % 1016,6 hPa 0,0 l/m 0 min 0 min 0 W/m 19,3 km/h (3 Bft) 89,36 %
20.10.2022 04:20 11,3 C 10,6 C 7,8 C 91 % 1016,6 hPa 0,0 l/m 0 min 0 min 0 W/m 19,3 km/h (3 Bft) 93,48 %
20.10.2022 04:22 11,3 C 10,6 C 7,8 C 91 % 1016,6 hPa 0,0 l/m 0 min 0 min 0 W/m 12,9 km/h (3 Bft) 91,49 %
20.10.2022 04:24 11,3 C 10,6 C 7,8 C 91 % 1016,5 hPa 0,0 l/m 0 min 0 min 0 W/m 22,5 km/h (4 Bft) 85,11 %
20.10.2022 04:26 11,4 C 10,6 C 7,8 C 91 % 1016,4 hPa 0,0 l/m 0 min 0 min 0 W/m 16,1 km/h (3 Bft) 91,49 %
20.10.2022 04:28 11,4 C 10,6 C 7,8 C 91 % 1016,5 hPa 0,0 l/m 0 min 0 min 0 W/m 16,1 km/h (3 Bft) 89,36 %
20.10.2022 04:30 11,4 C 10,6 C 7,8 C 91 % 1016,4 hPa 0,0 l/m 0 min 0 min 0 W/m 12,9 km/h (3 Bft) 80,49 %
20.10.2022 04:32 11,4 C 10,6 C 7,8 C 90 % 1016,5 hPa 0,0 l/m 0 min 0 min 0 W/m 12,9 km/h (3 Bft) 93,62 %
20.10.2022 04:34 11,4 C 10,6 C 7,8 C 90 % 1016,5 hPa 0,0 l/m 0 min 0 min 0 W/m 19,3 km/h (3 Bft) 95,74 %
20.10.2022 04:36 11,4 C 10,6 C 7,8 C 90 % 1016,4 hPa 0,0 l/m 0 min 0 min 0 W/m 9,7 km/h (2 Bft) 93,22 %
20.10.2022 04:38 11,4 C 10,6 C 7,8 C 90 % 1016,4 hPa 0,0 l/m 0 min 0 min 0 W/m 6,4 km/h (2 Bft) 94,29 %
20.10.2022 04:40 11,4 C 10,6 C 7,8 C 90 % 1016,4 hPa 0,0 l/m 0 min 0 min 0 W/m 29,0 km/h (5 Bft) 91,49 %
20.10.2022 04:42 11,4 C 10,6 C 7,8 C 90 % 1016,3 hPa 0,0 l/m 0 min 0 min 0 W/m 22,5 km/h (4 Bft) 95,92 %
20.10.2022 04:44 11,4 C 10,6 C 7,8 C 90 % 1016,3 hPa 0,0 l/m 0 min 0 min 0 W/m 19,3 km/h (3 Bft) 97,96 %
20.10.2022 04:46 11,4 C 10,6 C 7,8 C 90 % 1016,4 hPa 0,0 l/m 0 min 0 min 0 W/m 19,3 km/h (3 Bft) 95,74 %
20.10.2022 04:48 11,4 C 10,6 C 7,8 C 90 % 1016,3 hPa 0,0 l/m 0 min 0 min 0 W/m 19,3 km/h (3 Bft) 97,87 %
20.10.2022 04:50 11,4 C 10,6 C 7,8 C 90 % 1016,2 hPa 0,0 l/m 0 min 0 min 0 W/m 12,9 km/h (3 Bft) 95,74 %
20.10.2022 04:52 11,4 C 10,6 C 7,8 C 90 % 1016,2 hPa 0,0 l/m 0 min 0 min 0 W/m 12,9 km/h (3 Bft) 97,87 %
20.10.2022 04:54 11,4 C 10,6 C 7,8 C 90 % 1016,2 hPa 0,0 l/m 0 min 0 min 0 W/m 16,1 km/h (3 Bft) 92,68 %
20.10.2022 04:56 11,4 C 10,6 C 7,8 C 90 % 1016,3 hPa 0,0 l/m 0 min 0 min 0 W/m 12,9 km/h (3 Bft) 97,96 %
20.10.2022 04:58 11,3 C 10,6 C 7,8 C 90 % 1016,2 hPa 0,0 l/m 0 min 0 min 0 W/m 12,9 km/h (3 Bft) 91,49 %
20.10.2022 05:00 11,3 C 10,6 C 7,8 C 90 % 1016,2 hPa 0,0 l/m 0 min 0 min 0 W/m 16,1 km/h (3 Bft) 97,87 %
20.10.2022 05:02 11,3 C 10,6 C 7,8 C 90 % 1016,2 hPa 0,0 l/m 0 min 0 min 0 W/m 19,3 km/h (3 Bft) 100,00 %
20.10.2022 05:04 11,3 C 10,6 C 7,8 C 90 % 1016,1 hPa 0,0 l/m 0 min 0 min 0 W/m 19,3 km/h (3 Bft) 100,00 %
20.10.2022 05:06 11,3 C 10,6 C 7,8 C 90 % 1016,1 hPa 0,0 l/m 0 min 0 min 0 W/m 9,7 km/h (2 Bft) 98,31 %
20.10.2022 05:08 11,3 C 10,6 C 7,8 C 90 % 1016,1 hPa 0,0 l/m 0 min 0 min 0 W/m 16,1 km/h (3 Bft) 97,14 %
20.10.2022 05:10 11,3 C 10,6 C 7,8 C 90 % 1016,1 hPa 0,0 l/m 0 min 0 min 0 W/m 22,5 km/h (4 Bft) 97,87 %
20.10.2022 05:12 11,3 C 10,6 C 7,8 C 90 % 1016,1 hPa 0,0 l/m 0 min 0 min 0 W/m 22,5 km/h (4 Bft) 97,87 %
20.10.2022 05:14 11,4 C 10,6 C 7,8 C 90 % 1016,1 hPa 0,0 l/m 0 min 0 min 0 W/m 16,1 km/h (3 Bft) 100,00 %
20.10.2022 05:16 11,4 C 10,6 C 7,8 C 90 % 1016,1 hPa 0,0 l/m 0 min 0 min 0 W/m 12,9 km/h (3 Bft) 100,00 %
20.10.2022 05:18 11,4 C 10,6 C 7,8 C 90 % 1016,1 hPa 0,0 l/m 0 min 0 min 0 W/m 9,7 km/h (2 Bft) 100,00 %
20.10.2022 05:20 11,4 C 10,6 C 7,8 C 90 % 1016,0 hPa 0,0 l/m 0 min 0 min 0 W/m 12,9 km/h (3 Bft) 100,00 %
20.10.2022 05:22 11,3 C 10,6 C 7,8 C 90 % 1016,1 hPa 0,0 l/m 0 min 0 min 0 W/m 16,1 km/h (3 Bft) 100,00 %
20.10.2022 05:24 11,3 C 10,6 C 7,8 C 90 % 1016,1 hPa 0,0 l/m 0 min 0 min 0 W/m 22,5 km/h (4 Bft) 100,00 %
20.10.2022 05:26 11,4 C 10,6 C 7,8 C 90 % 1016,1 hPa 0,0 l/m 0 min 0 min 0 W/m 16,1 km/h (3 Bft) 97,62 %
20.10.2022 05:28 11,4 C 10,6 C 7,8 C 90 % 1016,2 hPa 0,0 l/m 0 min 0 min 0 W/m 16,1 km/h (3 Bft) 100,00 %
20.10.2022 05:30 11,4 C 10,6 C 7,8 C 90 % 1016,1 hPa 0,0 l/m 0 min 0 min 0 W/m 6,4 km/h (2 Bft) 100,00 %
20.10.2022 05:32 11,4 C 10,6 C 7,8 C 90 % 1016,0 hPa 0,0 l/m 0 min 0 min 0 W/m 16,1 km/h (3 Bft) 100,00 %
20.10.2022 05:34 11,4 C 10,6 C 7,8 C 90 % 1015,9 hPa 0,0 l/m 0 min 0 min 0 W/m 16,1 km/h (3 Bft) 100,00 %
20.10.2022 05:36 11,4 C 10,6 C 7,8 C 90 % 1015,8 hPa 0,0 l/m 0 min 0 min 0 W/m 16,1 km/h (3 Bft) 100,00 %
20.10.2022 05:38 11,4 C 10,6 C 7,8 C 90 % 1015,8 hPa 0,0 l/m 0 min 0 min 0 W/m 16,1 km/h (3 Bft) 100,00 %
20.10.2022 05:40 11,4 C 10,6 C 7,8 C 90 % 1015,8 hPa 0,0 l/m 0 min 0 min 0 W/m 12,9 km/h (3 Bft) 100,00 %
20.10.2022 05:42 11,4 C 10,6 C 7,8 C 90 % 1015,8 hPa 0,0 l/m 0 min 0 min 0 W/m 6,4 km/h (2 Bft) 97,87 %
20.10.2022 05:44 11,4 C 10,6 C 7,8 C 90 % 1015,8 hPa 0,0 l/m 0 min 0 min 0 W/m 19,3 km/h (3 Bft) 97,87 %
20.10.2022 05:46 11,4 C 10,6 C 7,8 C 90 % 1015,8 hPa 0,0 l/m 0 min 0 min 0 W/m 16,1 km/h (3 Bft) 97,87 %
20.10.2022 05:48 11,4 C 10,6 C 7,8 C 90 % 1015,7 hPa 0,0 l/m 0 min 0 min 0 W/m 16,1 km/h (3 Bft) 97,87 %
20.10.2022 05:50 11,4 C 10,6 C 7,8 C 90 % 1015,7 hPa 0,0 l/m 0 min 0 min 0 W/m 16,1 km/h (3 Bft) 97,96 %
20.10.2022 05:52 11,4 C 10,6 C 7,8 C 90 % 1015,6 hPa 0,0 l/m 0 min 0 min 0 W/m 16,1 km/h (3 Bft) 95,83 %
20.10.2022 05:54 11,4 C 10,6 C 7,8 C 90 % 1015,7 hPa 0,0 l/m 0 min 0 min 0 W/m 19,3 km/h (3 Bft) 91,30 %
20.10.2022 05:56 11,4 C 10,6 C 7,8 C 90 % 1015,6 hPa 0,0 l/m 0 min 0 min 0 W/m 16,1 km/h (3 Bft) 95,74 %
20.10.2022 05:58 11,4 C 10,6 C 7,8 C 90 % 1015,6 hPa 0,0 l/m 0 min 0 min 0 W/m 12,9 km/h (3 Bft) 97,87 %
20.10.2022 06:00 11,4 C 10,6 C 7,8 C 89 % 1015,5 hPa 0,0 l/m 0 min 0 min 0 W/m 12,9 km/h (3 Bft) 95,74 %
20.10.2022 06:02 11,4 C 10,6 C 7,8 C 89 % 1015,5 hPa 0,0 l/m 0 min 0 min 0 W/m 22,5 km/h (4 Bft) 97,67 %
20.10.2022 06:04 11,4 C 10,6 C 7,8 C 89 % 1015,4 hPa 0,0 l/m 0 min 0 min 0 W/m 16,1 km/h (3 Bft) 91,49 %
20.10.2022 06:08 11,4 C 10,6 C 7,8 C 89 % 1015,4 hPa 0,0 l/m 0 min 0 min 0 W/m 16,1 km/h (3 Bft) 74,47 %
20.10.2022 06:10 11,4 C 10,6 C 7,8 C 89 % 1015,5 hPa 0,0 l/m 0 min 0 min 0 W/m 19,3 km/h (3 Bft) 95,74 %
20.10.2022 06:12 11,4 C 10,6 C 7,8 C 89 % 1015,5 hPa 0,0 l/m 0 min 0 min 0 W/m 16,1 km/h (3 Bft) 95,74 %
20.10.2022 06:14 11,4 C 10,6 C 7,8 C 89 % 1015,6 hPa 0,0 l/m 0 min 0 min 0 W/m 16,1 km/h (3 Bft) 93,48 %
20.10.2022 06:16 11,4 C 10,6 C 7,8 C 89 % 1015,5 hPa 0,0 l/m 0 min 0 min 0 W/m 19,3 km/h (3 Bft) 95,83 %
20.10.2022 06:18 11,4 C 10,6 C 7,8 C 89 % 1015,6 hPa 0,0 l/m 0 min 0 min 0 W/m 19,3 km/h (3 Bft) 95,74 %
20.10.2022 06:20 11,4 C 10,6 C 7,8 C 89 % 1015,5 hPa 0,0 l/m 0 min 0 min 0 W/m 29,0 km/h (5 Bft) 91,49 %
20.10.2022 06:22 11,4 C 10,6 C 7,8 C 89 % 1015,5 hPa 0,0 l/m 0 min 0 min 0 W/m 19,3 km/h (3 Bft) 95,74 %
20.10.2022 06:24 11,4 C 10,6 C 7,8 C 89 % 1015,4 hPa 0,0 l/m 0 min 0 min 0 W/m 16,1 km/h (3 Bft) 95,74 %
20.10.2022 06:26 11,4 C 10,6 C 7,8 C 89 % 1015,4 hPa 0,0 l/m 0 min 0 min 0 W/m 19,3 km/h (3 Bft) 95,74 %
20.10.2022 06:28 11,4 C 10,6 C 7,8 C 89 % 1015,4 hPa 0,0 l/m 0 min 0 min 0 W/m 16,1 km/h (3 Bft) 97,62 %
20.10.2022 06:30 11,4 C 10,6 C 7,8 C 89 % 1015,4 hPa 0,0 l/m 0 min 0 min 0 W/m 19,3 km/h (3 Bft) 95,74 %
20.10.2022 06:32 11,4 C 10,6 C 7,8 C 89 % 1015,2 hPa 0,0 l/m 0 min 0 min 0 W/m 16,1 km/h (3 Bft) 89,36 %
20.10.2022 06:34 11,4 C 10,6 C 7,8 C 89 % 1015,1 hPa 0,0 l/m 0 min 0 min 0 W/m 22,5 km/h (4 Bft) 97,87 %
20.10.2022 06:36 11,4 C 10,6 C 7,8 C 89 % 1015,1 hPa 0,0 l/m 0 min 0 min 0 W/m 22,5 km/h (4 Bft) 96,55 %
20.10.2022 06:38 11,4 C 10,6 C 7,8 C 89 % 1015,0 hPa 0,0 l/m 0 min 0 min 0 W/m 22,5 km/h (4 Bft) 94,29 %
20.10.2022 06:40 11,5 C 10,6 C 7,8 C 89 % 1015,0 hPa 0,0 l/m 0 min 0 min 0 W/m 12,9 km/h (3 Bft) 92,00 %
20.10.2022 06:42 11,5 C 10,6 C 7,8 C 89 % 1015,0 hPa 0,0 l/m 0 min 0 min 0 W/m 25,7 km/h (4 Bft) 95,83 %
20.10.2022 06:44 11,5 C 11,1 C 7,8 C 89 % 1015,0 hPa 0,0 l/m 0 min 0 min 0 W/m 16,1 km/h (3 Bft) 97,87 %
20.10.2022 06:46 11,5 C 10,6 C 7,8 C 89 % 1015,0 hPa 0,0 l/m 0 min 0 min 0 W/m 16,1 km/h (3 Bft) 93,62 %
20.10.2022 06:48 11,5 C 10,6 C 7,8 C 89 % 1015,0 hPa 0,0 l/m 0 min 0 min 0 W/m 19,3 km/h (3 Bft) 95,74 %
20.10.2022 06:50 11,5 C 10,6 C 7,8 C 89 % 1014,9 hPa 0,0 l/m 0 min 0 min 0 W/m 16,1 km/h (3 Bft) 97,87 %
20.10.2022 06:52 11,5 C 10,6 C 7,8 C 89 % 1014,9 hPa 0,0 l/m 0 min 0 min 0 W/m 16,1 km/h (3 Bft) 100,00 %
20.10.2022 06:54 11,5 C 10,6 C 7,8 C 89 % 1014,8 hPa 0,0 l/m 0 min 0 min 0 W/m 16,1 km/h (3 Bft) 97,87 %
20.10.2022 06:56 11,5 C 10,6 C 7,8 C 89 % 1014,7 hPa 0,0 l/m 0 min 0 min 0 W/m 19,3 km/h (3 Bft) 93,62 %
20.10.2022 06:58 11,5 C 10,6 C 7,8 C 89 % 1014,7 hPa 0,0 l/m 0 min 0 min 0 W/m 16,1 km/h (3 Bft) 100,00 %
20.10.2022 07:00 11,5 C 10,6 C 7,8 C 89 % 1014,7 hPa 0,0 l/m 0 min 0 min 0 W/m 12,9 km/h (3 Bft) 95,74 %
20.10.2022 07:02 11,5 C 10,6 C 7,8 C 89 % 1014,6 hPa 0,0 l/m 0 min 0 min 0 W/m 22,5 km/h (4 Bft) 97,87 %
20.10.2022 07:04 11,5 C 10,6 C 7,8 C 89 % 1014,6 hPa 0,0 l/m 0 min 0 min 0 W/m 19,3 km/h (3 Bft) 97,62 %
20.10.2022 07:06 11,5 C 10,6 C 7,8 C 89 % 1014,7 hPa 0,0 l/m 0 min 0 min 0 W/m 16,1 km/h (3 Bft) 96,61 %
20.10.2022 07:08 11,5 C 10,6 C 7,8 C 88 % 1014,7 hPa 0,0 l/m 0 min 0 min 0 W/m 16,1 km/h (3 Bft) 97,14 %
20.10.2022 07:10 11,5 C 10,6 C 7,8 C 88 % 1014,7 hPa 0,0 l/m 0 min 0 min 0 W/m 19,3 km/h (3 Bft) 97,87 %
20.10.2022 07:12 11,5 C 10,6 C 7,8 C 88 % 1014,5 hPa 0,0 l/m 0 min 0 min 0 W/m 16,1 km/h (3 Bft) 95,74 %
20.10.2022 07:14 11,6 C 10,6 C 7,8 C 88 % 1014,6 hPa 0,0 l/m 0 min 0 min 0 W/m 12,9 km/h (3 Bft) 95,65 %
20.10.2022 07:16 11,5 C 10,6 C 7,8 C 88 % 1014,6 hPa 0,0 l/m 0 min 0 min 0 W/m 29,0 km/h (5 Bft) 59,57 %
20.10.2022 07:18 11,5 C 10,6 C 7,8 C 88 % 1014,6 hPa 0,0 l/m 0 min 0 min 0 W/m 19,3 km/h (3 Bft) 55,32 %
20.10.2022 07:20 11,6 C 10,6 C 7,8 C 88 % 1014,5 hPa 0,0 l/m 0 min 0 min 0 W/m 19,3 km/h (3 Bft) 70,21 %
20.10.2022 07:22 11,6 C 11,1 C 7,8 C 88 % 1014,5 hPa 0,0 l/m 0 min 0 min 0 W/m 29,0 km/h (5 Bft) 95,83 %
20.10.2022 07:24 11,6 C 11,1 C 7,8 C 88 % 1014,4 hPa 0,0 l/m 0 min 0 min 0 W/m 16,1 km/h (3 Bft) 95,74 %
20.10.2022 07:26 11,6 C 10,6 C 7,8 C 88 % 1014,3 hPa 0,0 l/m 0 min 0 min 0 W/m 19,3 km/h (3 Bft) 89,13 %
20.10.2022 07:28 11,6 C 10,6 C 7,8 C 88 % 1014,4 hPa 0,0 l/m 0 min 0 min 0 W/m 25,7 km/h (4 Bft) 95,74 %
20.10.2022 07:30 11,6 C 10,6 C 7,8 C 88 % 1014,4 hPa 0,0 l/m 0 min 0 min 0 W/m 16,1 km/h (3 Bft) 87,23 %
20.10.2022 07:32 11,6 C 10,6 C 7,8 C 88 % 1014,3 hPa 0,0 l/m 0 min 0 min 0 W/m 19,3 km/h (3 Bft) 93,62 %
20.10.2022 07:34 11,6 C 10,6 C 7,8 C 88 % 1014,3 hPa 0,0 l/m 0 min 0 min 0 W/m 22,5 km/h (4 Bft) 93,62 %
20.10.2022 07:36 11,6 C 10,6 C 7,8 C 88 % 1014,2 hPa 0,0 l/m 0 min 0 min 0 W/m 9,7 km/h (2 Bft) 96,55 %
20.10.2022 07:38 11,6 C 10,6 C 7,8 C 88 % 1014,1 hPa 0,0 l/m 0 min 0 min 0 W/m 12,9 km/h (3 Bft) 94,29 %
20.10.2022 07:40 11,6 C 10,6 C 7,8 C 88 % 1014,2 hPa 0,0 l/m 0 min 0 min 0 W/m 16,1 km/h (3 Bft) 97,87 %
20.10.2022 07:42 11,6 C 10,6 C 7,8 C 88 % 1014,2 hPa 0,0 l/m 0 min 0 min 0 W/m 12,9 km/h (3 Bft) 95,74 %
20.10.2022 07:44 11,6 C 10,6 C 7,8 C 88 % 1014,1 hPa 0,0 l/m 0 min 0 min 0 W/m 12,9 km/h (3 Bft) 100,00 %
20.10.2022 07:46 11,6 C 10,6 C 7,8 C 88 % 1014,1 hPa 0,0 l/m 0 min 0 min 0 W/m 16,1 km/h (3 Bft) 94,00 %
20.10.2022 07:48 11,6 C 11,1 C 7,8 C 88 % 1014,1 hPa 0,0 l/m 0 min 0 min 0 W/m 22,5 km/h (4 Bft) 97,83 %
20.10.2022 07:50 11,6 C 11,1 C 7,8 C 88 % 1014,2 hPa 0,0 l/m 0 min 0 min 0 W/m 12,9 km/h (3 Bft) 97,87 %
20.10.2022 07:52 11,6 C 10,6 C 7,8 C 88 % 1014,1 hPa 0,0 l/m 0 min 0 min 0 W/m 9,7 km/h (2 Bft) 100,00 %
20.10.2022 07:54 11,6 C 10,6 C 7,8 C 88 % 1014,1 hPa 0,0 l/m 0 min 0 min 0 W/m 12,9 km/h (3 Bft) 100,00 %
20.10.2022 07:56 11,6 C 10,6 C 7,8 C 88 % 1014,1 hPa 0,0 l/m 0 min 0 min 0 W/m 19,3 km/h (3 Bft) 97,87 %
20.10.2022 07:58 11,6 C 10,6 C 7,8 C 88 % 1014,1 hPa 0,0 l/m 0 min 0 min 0 W/m 12,9 km/h (3 Bft) 97,87 %
20.10.2022 08:00 11,6 C 10,6 C 7,8 C 88 % 1014,1 hPa 0,0 l/m 0 min 0 min 0 W/m 19,3 km/h (3 Bft) 97,87 %
20.10.2022 08:02 11,5 C 10,6 C 7,8 C 88 % 1014,1 hPa 0,0 l/m 0 min 0 min 0 W/m 6,4 km/h (2 Bft) 95,65 %
20.10.2022 08:04 11,5 C 10,6 C 7,8 C 88 % 1014,1 hPa 0,0 l/m 0 min 0 min 0 W/m 12,9 km/h (3 Bft) 95,74 %
20.10.2022 08:06 11,6 C 10,6 C 7,8 C 88 % 1014,1 hPa 0,0 l/m 0 min 0 min 0 W/m 22,5 km/h (4 Bft) 97,87 %
20.10.2022 08:08 11,6 C 10,6 C 7,8 C 88 % 1014,1 hPa 0,0 l/m 0 min 0 min 0 W/m 12,9 km/h (3 Bft) 97,87 %
20.10.2022 08:10 11,6 C 10,6 C 7,8 C 89 % 1014,1 hPa 0,0 l/m 0 min 0 min 0 W/m 9,7 km/h (2 Bft) 95,74 %
20.10.2022 08:12 11,6 C 10,6 C 7,8 C 89 % 1014,1 hPa 0,0 l/m 0 min 0 min 0 W/m 19,3 km/h (3 Bft) 97,67 %
20.10.2022 08:14 11,6 C 11,1 C 7,8 C 89 % 1013,9 hPa 0,0 l/m 0 min 0 min 0 W/m 22,5 km/h (4 Bft) 97,87 %
20.10.2022 08:16 11,6 C 11,1 C 7,8 C 89 % 1014,0 hPa 0,0 l/m 0 min 0 min 2 W/m 16,1 km/h (3 Bft) 97,87 %
20.10.2022 08:18 11,6 C 11,1 C 7,8 C 89 % 1013,9 hPa 0,0 l/m 0 min 0 min 5 W/m 12,9 km/h (3 Bft) 97,87 %
20.10.2022 08:20 11,6 C 11,1 C 7,8 C 89 % 1013,9 hPa 0,0 l/m 0 min 0 min 5 W/m 16,1 km/h (3 Bft) 98,00 %
20.10.2022 08:22 11,6 C 11,1 C 7,8 C 89 % 1014,0 hPa 0,0 l/m 0 min 0 min 7 W/m 16,1 km/h (3 Bft) 95,74 %
20.10.2022 08:24 11,6 C 11,1 C 7,8 C 89 % 1014,0 hPa 0,0 l/m 0 min 0 min 7 W/m 16,1 km/h (3 Bft) 97,87 %
20.10.2022 08:26 11,6 C 11,1 C 7,8 C 88 % 1014,2 hPa 0,0 l/m 0 min 0 min 8 W/m 16,1 km/h (3 Bft) 100,00 %
20.10.2022 08:28 11,6 C 11,1 C 7,8 C 88 % 1014,1 hPa 0,0 l/m 0 min 0 min 9 W/m 16,1 km/h (3 Bft) 100,00 %
20.10.2022 08:30 11,6 C 11,1 C 7,8 C 88 % 1014,1 hPa 0,0 l/m 0 min 0 min 11 W/m 25,7 km/h (4 Bft) 100,00 %
20.10.2022 08:32 11,7 C 11,1 C 7,8 C 89 % 1014,1 hPa 0,0 l/m 0 min 0 min 11 W/m 19,3 km/h (3 Bft) 100,00 %
20.10.2022 08:34 11,7 C 11,1 C 7,8 C 89 % 1014,2 hPa 0,0 l/m 0 min 0 min 12 W/m 19,3 km/h (3 Bft) 100,00 %
20.10.2022 08:36 11,7 C 11,1 C 7,8 C 89 % 1014,3 hPa 0,0 l/m 0 min 0 min 13 W/m 25,7 km/h (4 Bft) 100,00 %
20.10.2022 08:38 11,7 C 11,1 C 7,8 C 88 % 1014,2 hPa 0,0 l/m 0 min 0 min 15 W/m 16,1 km/h (3 Bft) 100,00 %
20.10.2022 08:40 11,7 C 11,1 C 7,8 C 88 % 1014,3 hPa 0,0 l/m 0 min 0 min 17 W/m 22,5 km/h (4 Bft) 100,00 %
20.10.2022 08:42 11,8 C 11,1 C 7,8 C 88 % 1014,2 hPa 0,0 l/m 0 min 0 min 18 W/m 16,1 km/h (3 Bft) 100,00 %
20.10.2022 08:44 11,8 C 11,1 C 7,8 C 88 % 1014,2 hPa 0,0 l/m 0 min 0 min 20 W/m 16,1 km/h (3 Bft) 97,87 %
20.10.2022 08:46 11,8 C 11,1 C 7,8 C 88 % 1014,2 hPa 0,0 l/m 0 min 0 min 22 W/m 12,9 km/h (3 Bft) 97,67 %
20.10.2022 08:48 11,8 C 11,1 C 7,8 C 88 % 1014,2 hPa 0,0 l/m 0 min 0 min 24 W/m 25,7 km/h (4 Bft) 97,96 %
20.10.2022 08:50 11,8 C 11,1 C 7,8 C 88 % 1014,0 hPa 0,0 l/m 0 min 0 min 25 W/m 16,1 km/h (3 Bft) 97,92 %
20.10.2022 08:52 11,8 C 11,1 C 7,8 C 88 % 1014,1 hPa 0,0 l/m 0 min 0 min 26 W/m 16,1 km/h (3 Bft) 97,87 %
20.10.2022 08:54 11,8 C 11,1 C 7,8 C 88 % 1013,9 hPa 0,0 l/m 0 min 0 min 27 W/m 19,3 km/h (3 Bft) 95,74 %
20.10.2022 08:56 11,8 C 11,1 C 7,8 C 88 % 1014,0 hPa 0,0 l/m 0 min 0 min 28 W/m 16,1 km/h (3 Bft) 97,67 %
20.10.2022 08:58 11,9 C 11,7 C 8,3 C 88 % 1014,2 hPa 0,0 l/m 0 min 0 min 29 W/m 19,3 km/h (3 Bft) 95,65 %
20.10.2022 09:00 11,9 C 11,7 C 8,3 C 88 % 1014,4 hPa 0,0 l/m 0 min 0 min 30 W/m 16,1 km/h (3 Bft) 96,00 %
20.10.2022 09:02 11,9 C 11,7 C 8,3 C 88 % 1014,4 hPa 0,0 l/m 0 min 0 min 32 W/m 29,0 km/h (5 Bft) 97,92 %
20.10.2022 09:04 11,9 C 11,7 C 8,3 C 88 % 1014,4 hPa 0,0 l/m 0 min 0 min 34 W/m 12,9 km/h (3 Bft) 97,87 %
20.10.2022 09:06 11,9 C 11,7 C 8,3 C 88 % 1014,4 hPa 0,0 l/m 0 min 0 min 36 W/m 25,7 km/h (4 Bft) 95,74 %
20.10.2022 09:08 12,0 C 11,7 C 8,3 C 88 % 1014,4 hPa 0,0 l/m 0 min 0 min 39 W/m 16,1 km/h (3 Bft) 97,87 %
20.10.2022 09:10 12,0 C 11,7 C 8,3 C 88 % 1014,3 hPa 0,0 l/m 0 min 0 min 40 W/m 12,9 km/h (3 Bft) 97,62 %
20.10.2022 09:12 12,0 C 11,7 C 8,3 C 88 % 1014,3 hPa 0,0 l/m 0 min 0 min 40 W/m 25,7 km/h (4 Bft) 95,74 %
20.10.2022 09:14 12,0 C 11,7 C 8,3 C 88 % 1014,3 hPa 0,0 l/m 0 min 0 min 42 W/m 16,1 km/h (3 Bft) 97,87 %
20.10.2022 09:16 12,0 C 11,7 C 8,3 C 88 % 1014,4 hPa 0,0 l/m 0 min 0 min 43 W/m 19,3 km/h (3 Bft) 94,00 %
20.10.2022 09:18 12,0 C 11,7 C 8,3 C 88 % 1014,4 hPa 0,0 l/m 0 min 0 min 44 W/m 25,7 km/h (4 Bft) 95,83 %
20.10.2022 09:20 12,0 C 11,7 C 8,3 C 88 % 1014,4 hPa 0,0 l/m 0 min 0 min 46 W/m 19,3 km/h (3 Bft) 97,87 %
20.10.2022 09:22 12,0 C 11,7 C 8,3 C 88 % 1014,5 hPa 0,0 l/m 0 min 0 min 48 W/m 12,9 km/h (3 Bft) 97,87 %
20.10.2022 09:24 12,0 C 11,7 C 8,3 C 88 % 1014,5 hPa 0,0 l/m 0 min 0 min 50 W/m 25,7 km/h (4 Bft) 95,65 %
20.10.2022 09:26 12,1 C 11,7 C 8,3 C 88 % 1014,4 hPa 0,0 l/m 0 min 0 min 53 W/m 19,3 km/h (3 Bft) 97,87 %
20.10.2022 09:28 12,1 C 11,7 C 8,3 C 88 % 1014,5 hPa 0,0 l/m 0 min 0 min 55 W/m 19,3 km/h (3 Bft) 97,87 %
20.10.2022 09:30 12,1 C 11,7 C 8,3 C 88 % 1014,4 hPa 0,0 l/m 0 min 0 min 57 W/m 16,1 km/h (3 Bft) 93,62 %
20.10.2022 09:32 12,1 C 11,7 C 8,3 C 88 % 1014,3 hPa 0,0 l/m 0 min 0 min 60 W/m 12,9 km/h (3 Bft) 93,02 %
20.10.2022 09:34 12,1 C 11,7 C 8,3 C 88 % 1014,3 hPa 0,0 l/m 0 min 0 min 62 W/m 19,3 km/h (3 Bft) 97,96 %
20.10.2022 09:36 12,1 C 11,7 C 8,3 C 88 % 1014,2 hPa 0,0 l/m 0 min 0 min 64 W/m 16,1 km/h (3 Bft) 97,87 %
20.10.2022 09:38 12,1 C 11,7 C 8,3 C 88 % 1014,2 hPa 0,0 l/m 0 min 0 min 68 W/m 12,9 km/h (3 Bft) 95,83 %
20.10.2022 09:40 12,1 C 11,7 C 8,3 C 88 % 1014,2 hPa 0,0 l/m 0 min 0 min 70 W/m 22,5 km/h (4 Bft) 95,74 %
20.10.2022 09:42 12,1 C 11,7 C 8,3 C 88 % 1014,4 hPa 0,0 l/m 0 min 0 min 74 W/m 12,9 km/h (3 Bft) 97,67 %
20.10.2022 09:44 12,1 C 11,7 C 8,3 C 88 % 1014,4 hPa 0,0 l/m 0 min 0 min 78 W/m 22,5 km/h (4 Bft) 95,92 %
20.10.2022 09:46 12,2 C 11,7 C 8,3 C 88 % 1014,4 hPa 0,0 l/m 0 min 0 min 82 W/m 9,7 km/h (2 Bft) 95,83 %
20.10.2022 09:48 12,2 C 11,7 C 8,3 C 88 % 1014,5 hPa 0,0 l/m 0 min 0 min 83 W/m 16,1 km/h (3 Bft) 93,62 %
20.10.2022 09:50 12,2 C 11,7 C 8,3 C 88 % 1014,4 hPa 0,0 l/m 0 min 0 min 86 W/m 12,9 km/h (3 Bft) 93,62 %
20.10.2022 09:52 12,2 C 11,7 C 8,3 C 88 % 1014,3 hPa 0,0 l/m 0 min 0 min 87 W/m 9,7 km/h (2 Bft) 97,67 %
20.10.2022 09:54 12,2 C 11,7 C 8,3 C 88 % 1014,1 hPa 0,0 l/m 0 min 0 min 89 W/m 12,9 km/h (3 Bft) 92,00 %
20.10.2022 09:56 12,2 C 11,7 C 8,3 C 88 % 1014,2 hPa 0,0 l/m 0 min 0 min 90 W/m 9,7 km/h (2 Bft) 95,83 %
20.10.2022 09:58 12,2 C 11,7 C 8,3 C 88 % 1014,2 hPa 0,0 l/m 0 min 0 min 90 W/m 12,9 km/h (3 Bft) 95,65 %
20.10.2022 10:00 12,3 C 11,7 C 8,3 C 88 % 1014,3 hPa 0,0 l/m 0 min 0 min 90 W/m 25,7 km/h (4 Bft) 95,74 %
20.10.2022 10:02 12,3 C 12,2 C 8,3 C 88 % 1014,3 hPa 0,0 l/m 0 min 0 min 94 W/m 16,1 km/h (3 Bft) 93,62 %
20.10.2022 10:04 12,3 C 12,2 C 8,3 C 88 % 1014,4 hPa 0,0 l/m 0 min 0 min 98 W/m 22,5 km/h (4 Bft) 95,35 %
20.10.2022 10:06 12,3 C 12,2 C 8,9 C 88 % 1014,4 hPa 0,0 l/m 0 min 0 min 102 W/m 16,1 km/h (3 Bft) 93,10 %
20.10.2022 10:08 12,4 C 12,2 C 8,9 C 88 % 1014,4 hPa 0,0 l/m 0 min 0 min 105 W/m 16,1 km/h (3 Bft) 94,44 %
20.10.2022 10:10 12,4 C 12,2 C 8,9 C 88 % 1014,3 hPa 0,0 l/m 0 min 0 min 107 W/m 12,9 km/h (3 Bft) 93,88 %
20.10.2022 10:12 12,4 C 12,2 C 8,9 C 88 % 1014,2 hPa 0,0 l/m 0 min 0 min 111 W/m 16,1 km/h (3 Bft) 95,83 %
20.10.2022 10:14 12,4 C 12,2 C 8,9 C 88 % 1014,2 hPa 0,0 l/m 0 min 0 min 115 W/m 16,1 km/h (3 Bft) 95,74 %
20.10.2022 10:16 12,4 C 12,2 C 8,9 C 88 % 1014,2 hPa 0,0 l/m 0 min 0 min 118 W/m 16,1 km/h (3 Bft) 95,74 %
20.10.2022 10:18 12,5 C 12,2 C 8,9 C 88 % 1014,3 hPa 0,0 l/m 0 min 0 min 121 W/m 22,5 km/h (4 Bft) 93,02 %
20.10.2022 10:20 12,6 C 12,2 C 8,9 C 87 % 1014,3 hPa 0,0 l/m 0 min 0 min 124 W/m 22,5 km/h (4 Bft) 93,48 %
20.10.2022 10:22 12,6 C 12,2 C 8,9 C 87 % 1014,2 hPa 0,0 l/m 0 min 0 min 126 W/m 22,5 km/h (4 Bft) 96,00 %
20.10.2022 10:24 12,6 C 12,2 C 8,9 C 87 % 1014,3 hPa 0,0 l/m 0 min 0 min 129 W/m 19,3 km/h (3 Bft) 95,74 %
20.10.2022 10:26 12,7 C 12,8 C 8,9 C 87 % 1014,3 hPa 0,0 l/m 0 min 0 min 132 W/m 16,1 km/h (3 Bft) 95,83 %
20.10.2022 10:28 12,7 C 12,8 C 8,9 C 87 % 1014,3 hPa 0,0 l/m 0 min 0 min 135 W/m 9,7 km/h (2 Bft) 97,87 %
20.10.2022 10:30 12,7 C 12,8 C 8,9 C 87 % 1014,3 hPa 0,0 l/m 0 min 0 min 135 W/m 12,9 km/h (3 Bft) 97,87 %
20.10.2022 10:32 12,8 C 12,8 C 8,9 C 87 % 1014,2 hPa 0,0 l/m 0 min 0 min 134 W/m 22,5 km/h (4 Bft) 95,74 %
20.10.2022 10:34 12,8 C 12,8 C 8,9 C 87 % 1014,1 hPa 0,0 l/m 0 min 0 min 134 W/m 19,3 km/h (3 Bft) 97,62 %
20.10.2022 10:36 12,8 C 12,8 C 8,9 C 87 % 1014,2 hPa 0,0 l/m 0 min 0 min 132 W/m 12,9 km/h (3 Bft) 94,00 %
20.10.2022 10:38 12,8 C 12,8 C 8,9 C 87 % 1014,2 hPa 0,0 l/m 0 min 0 min 133 W/m 16,1 km/h (3 Bft) 93,62 %
20.10.2022 10:40 12,8 C 12,8 C 8,9 C 87 % 1014,2 hPa 0,0 l/m 0 min 0 min 138 W/m 16,1 km/h (3 Bft) 97,87 %
20.10.2022 10:42 12,9 C 12,8 C 8,9 C 87 % 1014,1 hPa 0,0 l/m 0 min 0 min 161 W/m 12,9 km/h (3 Bft) 97,92 %
20.10.2022 10:44 12,9 C 12,8 C 9,4 C 87 % 1014,0 hPa 0,0 l/m 0 min 0 min 140 W/m 16,1 km/h (3 Bft) 93,62 %
20.10.2022 10:46 12,9 C 12,8 C 9,4 C 87 % 1014,0 hPa 0,0 l/m 0 min 0 min 136 W/m 19,3 km/h (3 Bft) 97,62 %
20.10.2022 10:48 12,9 C 12,8 C 9,4 C 87 % 1013,9 hPa 0,0 l/m 0 min 0 min 137 W/m 16,1 km/h (3 Bft) 100,00 %
20.10.2022 10:50 13,0 C 12,8 C 9,4 C 87 % 1013,9 hPa 0,0 l/m 0 min 0 min 138 W/m 16,1 km/h (3 Bft) 100,00 %
20.10.2022 10:52 13,1 C 12,8 C 9,4 C 87 % 1014,0 hPa 0,0 l/m 0 min 0 min 135 W/m 16,1 km/h (3 Bft) 100,00 %
20.10.2022 10:54 13,1 C 12,8 C 9,4 C 87 % 1013,9 hPa 0,0 l/m 0 min 0 min 134 W/m 19,3 km/h (3 Bft) 100,00 %
20.10.2022 10:56 13,1 C 12,8 C 9,4 C 87 % 1013,9 hPa 0,0 l/m 0 min 0 min 134 W/m 16,1 km/h (3 Bft) 97,92 %
20.10.2022 10:58 13,1 C 12,8 C 9,4 C 87 % 1013,8 hPa 0,0 l/m 0 min 0 min 134 W/m 16,1 km/h (3 Bft) 100,00 %
20.10.2022 11:00 13,1 C 12,8 C 9,4 C 87 % 1013,8 hPa 0,0 l/m 0 min 0 min 137 W/m 19,3 km/h (3 Bft) 100,00 %
20.10.2022 11:02 13,1 C 12,8 C 9,4 C 87 % 1014,0 hPa 0,0 l/m 0 min 0 min 139 W/m 25,7 km/h (4 Bft) 100,00 %
20.10.2022 11:04 13,1 C 12,8 C 9,4 C 86 % 1014,1 hPa 0,0 l/m 0 min 0 min 135 W/m 16,1 km/h (3 Bft) 100,00 %
20.10.2022 11:06 13,1 C 12,8 C 9,4 C 86 % 1014,2 hPa 0,0 l/m 0 min 0 min 135 W/m 22,5 km/h (4 Bft) 98,11 %
20.10.2022 11:08 13,1 C 12,8 C 9,4 C 86 % 1014,1 hPa 0,0 l/m 0 min 0 min 137 W/m 16,1 km/h (3 Bft) 100,00 %
20.10.2022 11:10 13,1 C 12,8 C 9,4 C 86 % 1014,0 hPa 0,0 l/m 0 min 0 min 141 W/m 16,1 km/h (3 Bft) 100,00 %
20.10.2022 11:12 13,1 C 12,8 C 9,4 C 86 % 1014,1 hPa 0,0 l/m 0 min 0 min 143 W/m 22,5 km/h (4 Bft) 100,00 %
20.10.2022 11:14 13,2 C 12,8 C 9,4 C 86 % 1013,9 hPa 0,0 l/m 0 min 0 min 133 W/m 19,3 km/h (3 Bft) 100,00 %
20.10.2022 11:16 13,2 C 12,8 C 9,4 C 86 % 1013,9 hPa 0,0 l/m 0 min 0 min 126 W/m 19,3 km/h (3 Bft) 100,00 %
20.10.2022 11:18 13,2 C 12,8 C 9,4 C 86 % 1013,9 hPa 0,0 l/m 0 min 0 min 125 W/m 16,1 km/h (3 Bft) 100,00 %
20.10.2022 11:20 13,2 C 12,8 C 9,4 C 86 % 1013,7 hPa 0,0 l/m 0 min 0 min 128 W/m 19,3 km/h (3 Bft) 100,00 %
20.10.2022 11:22 13,2 C 12,8 C 9,4 C 86 % 1013,9 hPa 0,0 l/m 0 min 0 min 139 W/m 29,0 km/h (5 Bft) 100,00 %
20.10.2022 11:24 13,2 C 12,8 C 9,4 C 86 % 1013,8 hPa 0,0 l/m 0 min 0 min 153 W/m 19,3 km/h (3 Bft) 100,00 %
20.10.2022 11:26 13,2 C 12,8 C 9,4 C 86 % 1013,8 hPa 0,0 l/m 0 min 0 min 165 W/m 25,7 km/h (4 Bft) 100,00 %
20.10.2022 11:28 13,3 C 13,3 C 9,4 C 86 % 1013,8 hPa 0,0 l/m 0 min 0 min 170 W/m 19,3 km/h (3 Bft) 97,62 %
20.10.2022 11:30 13,3 C 13,9 C 9,4 C 86 % 1013,8 hPa 0,0 l/m 0 min 0 min 183 W/m 19,3 km/h (3 Bft) 93,88 %
20.10.2022 11:32 13,3 C 13,9 C 9,4 C 86 % 1013,6 hPa 0,0 l/m 0 min 0 min 160 W/m 16,1 km/h (3 Bft) 95,92 %
20.10.2022 11:34 13,4 C 13,9 C 9,4 C 86 % 1013,5 hPa 0,0 l/m 0 min 0 min 144 W/m 12,9 km/h (3 Bft) 97,87 %
20.10.2022 11:36 13,4 C 13,9 C 9,4 C 86 % 1013,6 hPa 0,0 l/m 0 min 0 min 152 W/m 22,5 km/h (4 Bft) 96,30 %
20.10.2022 11:38 13,5 C 13,9 C 10,0 C 86 % 1013,6 hPa 0,0 l/m 0 min 0 min 157 W/m 9,7 km/h (2 Bft) 97,14 %
20.10.2022 11:40 13,5 C 13,9 C 10,0 C 86 % 1013,6 hPa 0,0 l/m 0 min 0 min 162 W/m 16,1 km/h (3 Bft) 97,87 %
20.10.2022 11:42 13,6 C 13,3 C 10,0 C 86 % 1013,5 hPa 0,0 l/m 0 min 0 min 167 W/m 25,7 km/h (4 Bft) 95,92 %
20.10.2022 11:44 13,6 C 13,3 C 10,0 C 86 % 1013,5 hPa 0,0 l/m 0 min 0 min 163 W/m 19,3 km/h (3 Bft) 97,87 %
20.10.2022 11:46 13,6 C 13,3 C 10,0 C 86 % 1013,5 hPa 0,0 l/m 0 min 0 min 146 W/m 19,3 km/h (3 Bft) 97,96 %
20.10.2022 11:48 13,6 C 13,3 C 10,0 C 85 % 1013,5 hPa 0,0 l/m 0 min 0 min 129 W/m 25,7 km/h (4 Bft) 97,87 %
20.10.2022 11:50 13,6 C 13,3 C 10,0 C 85 % 1013,5 hPa 0,0 l/m 0 min 0 min 122 W/m 19,3 km/h (3 Bft) 95,74 %
20.10.2022 11:52 13,6 C 13,3 C 9,4 C 85 % 1013,5 hPa 0,0 l/m 0 min 0 min 113 W/m 19,3 km/h (3 Bft) 95,74 %
20.10.2022 11:54 13,7 C 13,3 C 9,4 C 85 % 1013,6 hPa 0,0 l/m 0 min 0 min 102 W/m 22,5 km/h (4 Bft) 95,12 %
20.10.2022 11:56 13,6 C 13,3 C 9,4 C 85 % 1013,7 hPa 0,0 l/m 0 min 0 min 102 W/m 16,1 km/h (3 Bft) 96,00 %
20.10.2022 11:58 13,6 C 13,3 C 9,4 C 85 % 1013,7 hPa 0,0 l/m 0 min 0 min 116 W/m 16,1 km/h (3 Bft) 95,92 %
20.10.2022 12:00 13,7 C 13,3 C 9,4 C 85 % 1013,8 hPa 0,0 l/m 0 min 0 min 133 W/m 22,5 km/h (4 Bft) 95,74 %
20.10.2022 12:02 13,7 C 13,3 C 9,4 C 85 % 1014,0 hPa 0,0 l/m 0 min 0 min 138 W/m 22,5 km/h (4 Bft) 95,74 %
20.10.2022 12:04 13,7 C 13,3 C 9,4 C 86 % 1014,2 hPa 0,0 l/m 0 min 0 min 133 W/m 25,7 km/h (4 Bft) 95,24 %
20.10.2022 12:08 13,6 C 13,3 C 9,4 C 86 % 1014,2 hPa 0,0 l/m 0 min 4 min 138 W/m 35,4 km/h (5 Bft) 93,88 %
20.10.2022 12:10 13,6 C 12,8 C 9,4 C 86 % 1014,1 hPa 0,0 l/m 0 min 0 min 149 W/m 19,3 km/h (3 Bft) 95,74 %
20.10.2022 12:12 13,6 C 13,3 C 9,4 C 86 % 1014,0 hPa 0,0 l/m 0 min 0 min 141 W/m 22,5 km/h (4 Bft) 97,87 %
20.10.2022 12:14 13,6 C 13,3 C 9,4 C 86 % 1014,0 hPa 0,0 l/m 0 min 0 min 144 W/m 22,5 km/h (4 Bft) 97,87 %
20.10.2022 12:16 13,6 C 13,3 C 9,4 C 86 % 1013,8 hPa 0,0 l/m 0 min 0 min 151 W/m 25,7 km/h (4 Bft) 97,87 %
20.10.2022 12:18 13,6 C 13,3 C 9,4 C 86 % 1013,8 hPa 0,0 l/m 0 min 0 min 170 W/m 12,9 km/h (3 Bft) 97,56 %
20.10.2022 12:20 13,6 C 13,3 C 9,4 C 86 % 1013,9 hPa 0,0 l/m 0 min 0 min 189 W/m 25,7 km/h (4 Bft) 95,74 %
20.10.2022 12:22 13,6 C 13,3 C 9,4 C 86 % 1013,9 hPa 0,0 l/m 0 min 0 min 192 W/m 19,3 km/h (3 Bft) 97,87 %
20.10.2022 12:24 13,6 C 13,3 C 9,4 C 86 % 1014,0 hPa 0,0 l/m 0 min 0 min 183 W/m 22,5 km/h (4 Bft) 98,00 %
20.10.2022 12:26 13,6 C 13,3 C 9,4 C 86 % 1014,0 hPa 0,0 l/m 0 min 0 min 181 W/m 22,5 km/h (4 Bft) 95,92 %
20.10.2022 12:28 13,6 C 13,3 C 10,0 C 86 % 1014,0 hPa 0,0 l/m 0 min 0 min 185 W/m 29,0 km/h (5 Bft) 95,74 %
20.10.2022 12:30 13,7 C 13,3 C 10,0 C 86 % 1014,0 hPa 0,0 l/m 0 min 0 min 185 W/m 19,3 km/h (3 Bft) 100,00 %
20.10.2022 12:32 13,7 C 13,3 C 10,0 C 86 % 1014,0 hPa 0,0 l/m 0 min 0 min 187 W/m 16,1 km/h (3 Bft) 100,00 %
20.10.2022 12:34 13,7 C 13,3 C 10,0 C 86 % 1013,9 hPa 0,0 l/m 0 min 0 min 195 W/m 22,5 km/h (4 Bft) 97,87 %
20.10.2022 12:36 13,7 C 13,3 C 10,0 C 86 % 1013,9 hPa 0,0 l/m 0 min 0 min 202 W/m 32,2 km/h (5 Bft) 100,00 %
20.10.2022 12:38 13,7 C 13,3 C 10,0 C 86 % 1013,9 hPa 0,0 l/m 0 min 0 min 207 W/m 19,3 km/h (3 Bft) 100,00 %
20.10.2022 12:40 13,8 C 13,9 C 10,0 C 86 % 1013,9 hPa 0,0 l/m 0 min 0 min 201 W/m 9,7 km/h (2 Bft) 100,00 %
20.10.2022 12:42 13,8 C 13,9 C 10,0 C 86 % 1014,0 hPa 0,0 l/m 0 min 0 min 189 W/m 12,9 km/h (3 Bft) 100,00 %
20.10.2022 12:44 13,8 C 13,9 C 10,0 C 87 % 1013,9 hPa 0,0 l/m 0 min 0 min 185 W/m 16,1 km/h (3 Bft) 95,92 %
20.10.2022 12:46 13,9 C 13,9 C 10,0 C 87 % 1013,9 hPa 0,0 l/m 0 min 2 min 180 W/m 16,1 km/h (3 Bft) 97,87 %
20.10.2022 12:48 13,9 C 13,3 C 9,4 C 87 % 1013,9 hPa 0,0 l/m 0 min 2 min 165 W/m 19,3 km/h (3 Bft) 97,62 %
20.10.2022 12:50 13,9 C 13,3 C 9,4 C 87 % 1013,9 hPa 0,0 l/m 0 min 2 min 140 W/m 22,5 km/h (4 Bft) 97,87 %
20.10.2022 12:52 13,9 C 13,3 C 9,4 C 87 % 1013,7 hPa 0,0 l/m 0 min 0 min 112 W/m 16,1 km/h (3 Bft) 95,92 %
20.10.2022 12:54 13,8 C 13,3 C 9,4 C 87 % 1013,8 hPa 0,0 l/m 0 min 0 min 96 W/m 12,9 km/h (3 Bft) 97,96 %
20.10.2022 12:56 13,8 C 13,3 C 9,4 C 88 % 1013,8 hPa 0,0 l/m 0 min 0 min 87 W/m 19,3 km/h (3 Bft) 95,74 %
20.10.2022 12:58 13,8 C 13,3 C 9,4 C 88 % 1013,8 hPa 0,0 l/m 0 min 0 min 83 W/m 19,3 km/h (3 Bft) 97,62 %
20.10.2022 13:00 13,8 C 13,3 C 9,4 C 88 % 1013,7 hPa 0,0 l/m 0 min 0 min 87 W/m 6,4 km/h (2 Bft) 98,00 %
20.10.2022 13:02 13,8 C 13,3 C 9,4 C 88 % 1013,5 hPa 0,0 l/m 0 min 0 min 84 W/m 19,3 km/h (3 Bft) 97,87 %
20.10.2022 13:04 13,8 C 12,8 C 9,4 C 88 % 1013,5 hPa 0,0 l/m 0 min 2 min 79 W/m 12,9 km/h (3 Bft) 95,92 %
20.10.2022 13:06 13,8 C 12,8 C 9,4 C 88 % 1013,5 hPa 0,0 l/m 0 min 0 min 70 W/m 12,9 km/h (3 Bft) 95,65 %
20.10.2022 13:08 13,7 C 12,8 C 8,9 C 89 % 1013,5 hPa 0,0 l/m 0 min 2 min 65 W/m 12,9 km/h (3 Bft) 97,87 %
20.10.2022 13:10 13,7 C 12,8 C 8,9 C 89 % 1013,5 hPa 0,0 l/m 0 min 2 min 67 W/m 16,1 km/h (3 Bft) 95,74 %
20.10.2022 13:12 13,7 C 12,8 C 8,9 C 89 % 1013,5 hPa 0,0 l/m 0 min 2 min 67 W/m 6,4 km/h (2 Bft) 97,87 %
20.10.2022 13:14 13,7 C 12,8 C 8,9 C 89 % 1013,5 hPa 0,2 l/m 0 min 2 min 66 W/m 16,1 km/h (3 Bft) 95,24 %
20.10.2022 13:16 13,6 C 12,8 C 8,3 C 89 % 1013,4 hPa 0,0 l/m 0 min 2 min 64 W/m 12,9 km/h (3 Bft) 97,96 %
20.10.2022 13:18 13,6 C 12,2 C 8,3 C 89 % 1013,5 hPa 0,0 l/m 0 min 2 min 60 W/m 29,0 km/h (5 Bft) 97,96 %
20.10.2022 13:20 13,5 C 12,2 C 8,3 C 90 % 1013,5 hPa 0,0 l/m 0 min 2 min 56 W/m 16,1 km/h (3 Bft) 97,87 %
20.10.2022 13:22 13,4 C 12,2 C 8,3 C 90 % 1013,4 hPa 0,0 l/m 0 min 2 min 53 W/m 22,5 km/h (4 Bft) 95,74 %
20.10.2022 13:24 13,4 C 12,2 C 8,3 C 90 % 1013,5 hPa 0,2 l/m 0 min 2 min 51 W/m 19,3 km/h (3 Bft) 97,87 %
20.10.2022 13:26 13,3 C 12,2 C 7,8 C 91 % 1013,6 hPa 0,0 l/m 0 min 2 min 47 W/m 16,1 km/h (3 Bft) 97,62 %
20.10.2022 13:28 13,3 C 12,2 C 7,8 C 91 % 1013,7 hPa 0,0 l/m 0 min 2 min 45 W/m 16,1 km/h (3 Bft) 97,96 %
20.10.2022 13:30 13,2 C 12,2 C 7,8 C 91 % 1013,7 hPa 0,2 l/m 0 min 2 min 46 W/m 22,5 km/h (4 Bft) 97,96 %
20.10.2022 13:32 13,1 C 11,7 C 7,8 C 91 % 1013,7 hPa 0,0 l/m 0 min 2 min 44 W/m 22,5 km/h (4 Bft) 93,62 %
20.10.2022 13:34 13,1 C 11,7 C 7,8 C 92 % 1013,7 hPa 0,0 l/m 0 min 2 min 48 W/m 19,3 km/h (3 Bft) 97,62 %
20.10.2022 13:36 13,0 C 11,7 C 7,8 C 92 % 1013,7 hPa 0,0 l/m 0 min 2 min 50 W/m 19,3 km/h (3 Bft) 100,00 %
20.10.2022 13:38 12,9 C 11,7 C 7,8 C 92 % 1013,7 hPa 0,0 l/m 0 min 2 min 47 W/m 19,3 km/h (3 Bft) 100,00 %
20.10.2022 13:40 12,9 C 11,7 C 7,8 C 93 % 1013,7 hPa 0,0 l/m 0 min 2 min 43 W/m 12,9 km/h (3 Bft) 100,00 %
20.10.2022 13:42 12,9 C 11,7 C 7,8 C 93 % 1013,7 hPa 0,0 l/m 0 min 2 min 41 W/m 16,1 km/h (3 Bft) 98,00 %
20.10.2022 13:44 12,8 C 11,7 C 7,8 C 93 % 1013,7 hPa 0,2 l/m 0 min 2 min 42 W/m 29,0 km/h (5 Bft) 95,74 %
20.10.2022 13:46 12,8 C 11,7 C 7,8 C 93 % 1013,7 hPa 0,0 l/m 0 min 2 min 51 W/m 16,1 km/h (3 Bft) 95,74 %
20.10.2022 13:48 12,8 C 11,7 C 7,8 C 93 % 1013,7 hPa 0,0 l/m 0 min 2 min 57 W/m 16,1 km/h (3 Bft) 100,00 %
20.10.2022 13:50 12,8 C 11,7 C 7,8 C 93 % 1013,7 hPa 0,2 l/m 0 min 2 min 62 W/m 19,3 km/h (3 Bft) 100,00 %
20.10.2022 13:52 12,7 C 11,7 C 7,8 C 94 % 1013,7 hPa 0,0 l/m 0 min 2 min 67 W/m 16,1 km/h (3 Bft) 97,83 %
20.10.2022 13:54 12,7 C 11,7 C 8,3 C 94 % 1013,8 hPa 0,0 l/m 0 min 2 min 71 W/m 16,1 km/h (3 Bft) 97,87 %
20.10.2022 13:56 12,7 C 11,7 C 8,3 C 94 % 1013,8 hPa 0,0 l/m 0 min 2 min 65 W/m 16,1 km/h (3 Bft) 97,62 %
20.10.2022 13:58 12,7 C 11,7 C 8,3 C 94 % 1013,8 hPa 0,0 l/m 0 min 2 min 60 W/m 12,9 km/h (3 Bft) 97,87 %
20.10.2022 14:00 12,7 C 11,7 C 8,3 C 95 % 1013,8 hPa 0,0 l/m 0 min 2 min 54 W/m 12,9 km/h (3 Bft) 96,00 %
20.10.2022 14:02 12,7 C 11,7 C 8,3 C 95 % 1013,8 hPa 0,0 l/m 0 min 2 min 48 W/m 16,1 km/h (3 Bft) 97,96 %
20.10.2022 14:04 12,7 C 11,7 C 8,3 C 95 % 1013,7 hPa 0,0 l/m 0 min 2 min 50 W/m 25,7 km/h (4 Bft) 97,83 %
20.10.2022 14:06 12,7 C 11,7 C 8,3 C 95 % 1013,6 hPa 0,0 l/m 0 min 2 min 42 W/m 16,1 km/h (3 Bft) 97,87 %
20.10.2022 14:08 12,7 C 11,7 C 8,3 C 95 % 1013,6 hPa 0,0 l/m 0 min 2 min 36 W/m 19,3 km/h (3 Bft) 97,87 %
20.10.2022 14:10 12,7 C 11,7 C 8,3 C 95 % 1013,5 hPa 0,0 l/m 0 min 2 min 33 W/m 16,1 km/h (3 Bft) 93,62 %
20.10.2022 14:12 12,6 C 11,7 C 8,3 C 95 % 1013,5 hPa 0,0 l/m 0 min 2 min 30 W/m 19,3 km/h (3 Bft) 95,74 %
20.10.2022 14:14 12,6 C 11,7 C 8,3 C 95 % 1013,6 hPa 0,2 l/m 0 min 2 min 22 W/m 12,9 km/h (3 Bft) 95,12 %
20.10.2022 14:16 12,6 C 11,7 C 8,3 C 95 % 1013,5 hPa 0,0 l/m 0 min 2 min 26 W/m 16,1 km/h (3 Bft) 95,74 %
20.10.2022 14:18 12,6 C 11,7 C 8,3 C 95 % 1013,2 hPa 0,0 l/m 0 min 2 min 37 W/m 16,1 km/h (3 Bft) 93,62 %
20.10.2022 14:20 12,6 C 11,7 C 8,3 C 95 % 1013,1 hPa 0,0 l/m 0 min 2 min 39 W/m 6,4 km/h (2 Bft) 96,00 %
20.10.2022 14:22 12,6 C 11,7 C 8,3 C 95 % 1013,0 hPa 0,2 l/m 0 min 2 min 49 W/m 16,1 km/h (3 Bft) 93,88 %
20.10.2022 14:24 12,6 C 11,7 C 8,3 C 96 % 1013,1 hPa 0,0 l/m 0 min 2 min 64 W/m 16,1 km/h (3 Bft) 95,74 %
20.10.2022 14:26 12,6 C 11,7 C 8,3 C 96 % 1013,0 hPa 0,0 l/m 0 min 2 min 86 W/m 6,4 km/h (2 Bft) 95,12 %
20.10.2022 14:28 12,7 C 12,2 C 8,3 C 96 % 1013,1 hPa 0,0 l/m 0 min 2 min 118 W/m 12,9 km/h (3 Bft) 96,00 %
20.10.2022 14:30 12,7 C 12,2 C 8,3 C 96 % 1013,0 hPa 0,0 l/m 0 min 0 min 145 W/m 9,7 km/h (2 Bft) 95,92 %
20.10.2022 14:32 12,7 C 12,2 C 8,9 C 96 % 1012,9 hPa 0,0 l/m 0 min 0 min 164 W/m 9,7 km/h (2 Bft) 97,87 %
20.10.2022 14:34 12,8 C 12,2 C 8,9 C 96 % 1012,9 hPa 0,0 l/m 0 min 0 min 171 W/m 16,1 km/h (3 Bft) 97,62 %
20.10.2022 14:36 12,8 C 12,2 C 8,9 C 96 % 1012,9 hPa 0,0 l/m 0 min 0 min 173 W/m 6,4 km/h (2 Bft) 98,28 %
20.10.2022 14:38 12,8 C 12,2 C 8,9 C 96 % 1012,8 hPa 0,2 l/m 0 min 0 min 178 W/m 12,9 km/h (3 Bft) 97,22 %
20.10.2022 14:40 12,9 C 12,8 C 8,9 C 96 % 1012,9 hPa 0,0 l/m 0 min 0 min 172 W/m 6,4 km/h (2 Bft) 97,96 %
20.10.2022 14:42 12,9 C 12,8 C 8,9 C 97 % 1012,9 hPa 0,0 l/m 0 min 0 min 155 W/m 12,9 km/h (3 Bft) 97,96 %
20.10.2022 14:44 13,0 C 12,8 C 8,9 C 97 % 1012,9 hPa 0,0 l/m 0 min 0 min 140 W/m 16,1 km/h (3 Bft) 95,74 %
20.10.2022 14:46 13,0 C 12,8 C 8,9 C 97 % 1012,9 hPa 0,0 l/m 0 min 0 min 118 W/m 6,4 km/h (2 Bft) 97,62 %
20.10.2022 14:48 13,1 C 12,8 C 8,9 C 97 % 1012,7 hPa 0,0 l/m 0 min 0 min 116 W/m 12,9 km/h (3 Bft) 96,00 %
20.10.2022 14:50 13,1 C 12,8 C 8,9 C 97 % 1012,8 hPa 0,0 l/m 0 min 0 min 120 W/m 12,9 km/h (3 Bft) 97,92 %
20.10.2022 14:52 13,1 C 12,2 C 8,9 C 97 % 1012,9 hPa 0,0 l/m 0 min 0 min 116 W/m 19,3 km/h (3 Bft) 97,87 %
20.10.2022 14:54 13,1 C 12,8 C 8,9 C 97 % 1012,9 hPa 0,0 l/m 0 min 0 min 128 W/m 16,1 km/h (3 Bft) 97,87 %
20.10.2022 14:56 13,1 C 12,8 C 8,9 C 97 % 1012,9 hPa 0,0 l/m 0 min 0 min 147 W/m 12,9 km/h (3 Bft) 97,62 %
20.10.2022 14:58 13,1 C 12,8 C 8,9 C 97 % 1012,8 hPa 0,0 l/m 0 min 0 min 150 W/m 16,1 km/h (3 Bft) 100,00 %
20.10.2022 15:00 13,1 C 12,8 C 8,9 C 97 % 1012,8 hPa 0,0 l/m 0 min 0 min 156 W/m 16,1 km/h (3 Bft) 97,96 %
20.10.2022 15:02 13,2 C 12,8 C 8,9 C 97 % 1012,8 hPa 0,0 l/m 0 min 0 min 161 W/m 9,7 km/h (2 Bft) 97,83 %
20.10.2022 15:04 13,2 C 12,8 C 8,9 C 97 % 1012,9 hPa 0,0 l/m 0 min 0 min 167 W/m 16,1 km/h (3 Bft) 100,00 %
20.10.2022 15:06 13,2 C 12,8 C 8,9 C 97 % 1012,9 hPa 0,0 l/m 0 min 0 min 158 W/m 22,5 km/h (4 Bft) 100,00 %
20.10.2022 15:08 13,2 C 13,3 C 9,4 C 97 % 1012,8 hPa 0,0 l/m 0 min 0 min 164 W/m 12,9 km/h (3 Bft) 100,00 %
20.10.2022 15:10 13,3 C 13,3 C 9,4 C 97 % 1012,7 hPa 0,0 l/m 0 min 0 min 178 W/m 12,9 km/h (3 Bft) 97,96 %
20.10.2022 15:12 13,3 C 13,3 C 9,4 C 97 % 1012,7 hPa 0,0 l/m 0 min 0 min 169 W/m 12,9 km/h (3 Bft) 95,74 %
20.10.2022 15:14 13,3 C 13,3 C 9,4 C 97 % 1012,7 hPa 0,0 l/m 0 min 0 min 160 W/m 16,1 km/h (3 Bft) 100,00 %
20.10.2022 15:16 13,4 C 13,3 C 9,4 C 97 % 1012,7 hPa 0,0 l/m 0 min 0 min 143 W/m 9,7 km/h (2 Bft) 100,00 %
20.10.2022 15:18 13,4 C 13,3 C 9,4 C 97 % 1012,7 hPa 0,0 l/m 0 min 0 min 144 W/m 16,1 km/h (3 Bft) 100,00 %
20.10.2022 15:20 13,3 C 13,3 C 9,4 C 97 % 1012,6 hPa 0,0 l/m 0 min 0 min 157 W/m 16,1 km/h (3 Bft) 97,87 %
20.10.2022 15:22 13,3 C 13,3 C 9,4 C 97 % 1012,6 hPa 0,0 l/m 0 min 0 min 175 W/m 16,1 km/h (3 Bft) 100,00 %
20.10.2022 15:24 13,4 C 13,3 C 9,4 C 97 % 1012,6 hPa 0,0 l/m 0 min 0 min 191 W/m 6,4 km/h (2 Bft) 100,00 %
20.10.2022 15:26 13,4 C 13,3 C 9,4 C 97 % 1012,6 hPa 0,0 l/m 0 min 0 min 187 W/m 16,1 km/h (3 Bft) 98,00 %
20.10.2022 15:28 13,4 C 13,3 C 9,4 C 97 % 1012,6 hPa 0,0 l/m 0 min 0 min 181 W/m 16,1 km/h (3 Bft) 97,87 %
20.10.2022 15:30 13,5 C 13,9 C 9,4 C 97 % 1012,7 hPa 0,0 l/m 2 min 0 min 221 W/m 12,9 km/h (3 Bft) 93,88 %
20.10.2022 15:32 13,6 C 13,9 C 9,4 C 97 % 1012,7 hPa 0,0 l/m 2 min 0 min 252 W/m 16,1 km/h (3 Bft) 97,87 %
20.10.2022 15:34 13,6 C 13,9 C 9,4 C 97 % 1012,7 hPa 0,0 l/m 2 min 0 min 233 W/m 19,3 km/h (3 Bft) 97,62 %
20.10.2022 15:36 13,7 C 13,9 C 9,4 C 97 % 1012,7 hPa 0,0 l/m 2 min 0 min 196 W/m 16,1 km/h (3 Bft) 98,28 %
20.10.2022 15:38 13,7 C 13,9 C 9,4 C 97 % 1012,7 hPa 0,0 l/m 2 min 0 min 181 W/m 12,9 km/h (3 Bft) 94,29 %
20.10.2022 15:40 13,8 C 13,9 C 9,4 C 97 % 1012,6 hPa 0,0 l/m 2 min 0 min 241 W/m 12,9 km/h (3 Bft) 95,74 %
20.10.2022 15:42 13,8 C 14,4 C 9,4 C 97 % 1012,5 hPa 0,0 l/m 2 min 0 min 245 W/m 12,9 km/h (3 Bft) 98,00 %
20.10.2022 15:44 13,8 C 14,4 C 9,4 C 97 % 1012,4 hPa 0,0 l/m 2 min 0 min 214 W/m 12,9 km/h (3 Bft) 97,96 %
20.10.2022 15:46 13,8 C 14,4 C 9,4 C 97 % 1012,4 hPa 0,0 l/m 2 min 0 min 184 W/m 12,9 km/h (3 Bft) 95,74 %
20.10.2022 15:48 13,9 C 13,9 C 9,4 C 97 % 1012,5 hPa 0,0 l/m 2 min 0 min 174 W/m 16,1 km/h (3 Bft) 97,56 %
20.10.2022 15:50 13,9 C 13,9 C 9,4 C 96 % 1012,6 hPa 0,0 l/m 0 min 0 min 143 W/m 22,5 km/h (4 Bft) 94,00 %
20.10.2022 15:52 13,9 C 13,9 C 9,4 C 96 % 1012,5 hPa 0,0 l/m 0 min 0 min 154 W/m 16,1 km/h (3 Bft) 97,87 %
20.10.2022 15:54 13,9 C 13,9 C 9,4 C 96 % 1012,4 hPa 0,0 l/m 0 min 0 min 144 W/m 12,9 km/h (3 Bft) 97,87 %
20.10.2022 15:56 13,9 C 13,9 C 9,4 C 96 % 1012,3 hPa 0,0 l/m 0 min 0 min 113 W/m 12,9 km/h (3 Bft) 95,92 %
20.10.2022 15:58 13,9 C 13,9 C 9,4 C 96 % 1012,3 hPa 0,0 l/m 0 min 0 min 97 W/m 9,7 km/h (2 Bft) 95,74 %
20.10.2022 16:00 13,9 C 13,9 C 9,4 C 96 % 1012,3 hPa 0,0 l/m 0 min 0 min 93 W/m 16,1 km/h (3 Bft) 95,12 %
20.10.2022 16:02 13,9 C 13,9 C 9,4 C 96 % 1012,4 hPa 0,0 l/m 0 min 0 min 101 W/m 22,5 km/h (4 Bft) 93,62 %
20.10.2022 16:04 13,9 C 13,9 C 9,4 C 96 % 1012,2 hPa 0,0 l/m 2 min 0 min 206 W/m 19,3 km/h (3 Bft) 95,74 %
20.10.2022 16:06 13,9 C 13,9 C 9,4 C 96 % 1012,2 hPa 0,0 l/m 2 min 0 min 361 W/m 19,3 km/h (3 Bft) 96,00 %
20.10.2022 16:08 13,9 C 14,4 C 9,4 C 96 % 1012,1 hPa 0,0 l/m 2 min 0 min 386 W/m 25,7 km/h (4 Bft) 93,62 %
20.10.2022 16:10 14,0 C 14,4 C 9,4 C 96 % 1012,1 hPa 0,0 l/m 2 min 0 min 358 W/m 22,5 km/h (4 Bft) 95,92 %
20.10.2022 16:12 14,1 C 14,4 C 9,4 C 96 % 1012,2 hPa 0,0 l/m 2 min 0 min 371 W/m 12,9 km/h (3 Bft) 97,83 %
20.10.2022 16:14 14,1 C 14,4 C 9,4 C 96 % 1012,2 hPa 0,0 l/m 2 min 0 min 364 W/m 12,9 km/h (3 Bft) 95,74 %
20.10.2022 16:16 14,3 C 14,4 C 9,4 C 96 % 1012,3 hPa 0,0 l/m 2 min 0 min 332 W/m 19,3 km/h (3 Bft) 97,62 %
20.10.2022 16:18 14,3 C 14,4 C 9,4 C 96 % 1012,3 hPa 0,0 l/m 2 min 0 min 306 W/m 16,1 km/h (3 Bft) 98,00 %
20.10.2022 16:20 14,3 C 14,4 C 9,4 C 96 % 1012,3 hPa 0,0 l/m 2 min 0 min 288 W/m 12,9 km/h (3 Bft) 95,92 %
20.10.2022 16:22 14,3 C 15,0 C 9,4 C 95 % 1012,3 hPa 0,0 l/m 2 min 0 min 207 W/m 16,1 km/h (3 Bft) 97,87 %
20.10.2022 16:24 14,3 C 15,0 C 9,4 C 95 % 1012,3 hPa 0,0 l/m 2 min 0 min 223 W/m 16,1 km/h (3 Bft) 100,00 %
20.10.2022 16:26 14,3 C 15,0 C 9,4 C 95 % 1012,3 hPa 0,0 l/m 2 min 0 min 253 W/m 12,9 km/h (3 Bft) 96,00 %
20.10.2022 16:28 14,4 C 14,4 C 9,4 C 95 % 1012,2 hPa 0,0 l/m 2 min 0 min 253 W/m 16,1 km/h (3 Bft) 97,87 %
20.10.2022 16:30 14,4 C 14,4 C 9,4 C 94 % 1012,2 hPa 0,0 l/m 2 min 0 min 251 W/m 19,3 km/h (3 Bft) 97,96 %
20.10.2022 16:32 14,4 C 14,4 C 9,4 C 94 % 1012,2 hPa 0,0 l/m 2 min 0 min 246 W/m 12,9 km/h (3 Bft) 97,87 %
20.10.2022 16:34 14,4 C 14,4 C 9,4 C 94 % 1012,3 hPa 0,0 l/m 2 min 0 min 228 W/m 25,7 km/h (4 Bft) 100,00 %
20.10.2022 16:36 14,5 C 14,4 C 9,4 C 94 % 1012,3 hPa 0,0 l/m 2 min 0 min 144 W/m 19,3 km/h (3 Bft) 96,23 %
20.10.2022 16:38 14,5 C 14,4 C 9,4 C 94 % 1012,3 hPa 0,0 l/m 2 min 0 min 187 W/m 19,3 km/h (3 Bft) 100,00 %
20.10.2022 16:40 14,6 C 14,4 C 9,4 C 94 % 1012,2 hPa 0,0 l/m 2 min 0 min 219 W/m 12,9 km/h (3 Bft) 100,00 %
20.10.2022 16:42 14,6 C 14,4 C 9,4 C 94 % 1012,2 hPa 0,0 l/m 2 min 0 min 182 W/m 22,5 km/h (4 Bft) 100,00 %
20.10.2022 16:44 14,6 C 14,4 C 9,4 C 93 % 1012,2 hPa 0,0 l/m 2 min 0 min 162 W/m 12,9 km/h (3 Bft) 97,87 %
20.10.2022 16:46 14,6 C 14,4 C 9,4 C 93 % 1012,2 hPa 0,0 l/m 2 min 0 min 194 W/m 16,1 km/h (3 Bft) 100,00 %
20.10.2022 16:48 14,7 C 14,4 C 10,0 C 93 % 1012,2 hPa 0,0 l/m 2 min 0 min 191 W/m 19,3 km/h (3 Bft) 100,00 %
20.10.2022 16:50 14,7 C 14,4 C 10,0 C 93 % 1012,2 hPa 0,0 l/m 2 min 0 min 185 W/m 19,3 km/h (3 Bft) 98,00 %
20.10.2022 16:52 14,7 C 14,4 C 10,0 C 93 % 1012,2 hPa 0,0 l/m 2 min 0 min 176 W/m 22,5 km/h (4 Bft) 97,96 %
20.10.2022 16:54 14,7 C 14,4 C 10,0 C 93 % 1012,1 hPa 0,0 l/m 2 min 0 min 123 W/m 16,1 km/h (3 Bft) 97,87 %
20.10.2022 16:56 14,7 C 14,4 C 10,0 C 93 % 1012,1 hPa 0,0 l/m 2 min 0 min 126 W/m 12,9 km/h (3 Bft) 95,24 %
20.10.2022 16:58 14,7 C 14,4 C 10,0 C 93 % 1012,1 hPa 0,0 l/m 2 min 0 min 154 W/m 16,1 km/h (3 Bft) 95,92 %
20.10.2022 17:00 14,7 C 14,4 C 10,0 C 93 % 1012,1 hPa 0,0 l/m 2 min 0 min 110 W/m 19,3 km/h (3 Bft) 97,87 %
20.10.2022 17:02 14,8 C 14,4 C 10,0 C 93 % 1012,1 hPa 0,0 l/m 0 min 0 min 59 W/m 22,5 km/h (4 Bft) 93,88 %
20.10.2022 17:04 14,8 C 14,4 C 10,0 C 93 % 1012,0 hPa 0,0 l/m 0 min 0 min 50 W/m 16,1 km/h (3 Bft) 97,87 %
20.10.2022 17:06 14,8 C 14,4 C 10,0 C 93 % 1011,9 hPa 0,0 l/m 0 min 0 min 44 W/m 16,1 km/h (3 Bft) 96,30 %
20.10.2022 17:08 14,8 C 14,4 C 10,0 C 93 % 1012,0 hPa 0,0 l/m 0 min 0 min 43 W/m 16,1 km/h (3 Bft) 97,14 %
20.10.2022 17:10 14,8 C 14,4 C 9,4 C 92 % 1011,9 hPa 0,0 l/m 0 min 0 min 46 W/m 19,3 km/h (3 Bft) 97,83 %
20.10.2022 17:12 14,8 C 13,9 C 9,4 C 92 % 1011,9 hPa 0,0 l/m 0 min 0 min 46 W/m 16,1 km/h (3 Bft) 97,87 %
20.10.2022 17:14 14,7 C 13,9 C 9,4 C 92 % 1011,9 hPa 0,0 l/m 0 min 0 min 46 W/m 16,1 km/h (3 Bft) 98,00 %
20.10.2022 17:16 14,7 C 13,9 C 9,4 C 92 % 1011,8 hPa 0,0 l/m 0 min 0 min 46 W/m 12,9 km/h (3 Bft) 97,87 %
20.10.2022 17:18 14,7 C 13,9 C 10,0 C 92 % 1011,9 hPa 0,0 l/m 0 min 0 min 46 W/m 16,1 km/h (3 Bft) 97,96 %
20.10.2022 17:20 14,7 C 13,9 C 9,4 C 92 % 1011,9 hPa 0,0 l/m 0 min 0 min 47 W/m 29,0 km/h (5 Bft) 95,74 %
20.10.2022 17:22 14,7 C 13,9 C 10,0 C 92 % 1011,8 hPa 0,0 l/m 0 min 0 min 47 W/m 19,3 km/h (3 Bft) 97,87 %
20.10.2022 17:24 14,7 C 13,9 C 10,0 C 92 % 1011,8 hPa 0,0 l/m 0 min 0 min 49 W/m 19,3 km/h (3 Bft) 97,56 %
20.10.2022 17:26 14,7 C 13,9 C 10,0 C 92 % 1011,8 hPa 0,0 l/m 0 min 0 min 48 W/m 16,1 km/h (3 Bft) 93,62 %
20.10.2022 17:28 14,7 C 13,9 C 10,0 C 92 % 1011,8 hPa 0,0 l/m 0 min 0 min 44 W/m 12,9 km/h (3 Bft) 97,87 %
20.10.2022 17:30 14,7 C 13,9 C 10,0 C 92 % 1011,8 hPa 0,0 l/m 0 min 0 min 49 W/m 19,3 km/h (3 Bft) 96,00 %
20.10.2022 17:32 14,6 C 13,9 C 10,0 C 92 % 1011,8 hPa 0,0 l/m 0 min 0 min 53 W/m 12,9 km/h (3 Bft) 97,96 %
20.10.2022 17:34 14,6 C 13,9 C 10,0 C 92 % 1011,8 hPa 0,0 l/m 0 min 0 min 53 W/m 22,5 km/h (4 Bft) 97,83 %
20.10.2022 17:36 14,6 C 13,9 C 10,0 C 92 % 1011,8 hPa 0,0 l/m 0 min 0 min 51 W/m 12,9 km/h (3 Bft) 97,87 %
20.10.2022 17:38 14,6 C 13,9 C 10,0 C 92 % 1011,8 hPa 0,0 l/m 0 min 0 min 51 W/m 19,3 km/h (3 Bft) 97,87 %
20.10.2022 17:40 14,6 C 13,9 C 10,0 C 92 % 1011,7 hPa 0,0 l/m 0 min 0 min 53 W/m 25,7 km/h (4 Bft) 100,00 %
20.10.2022 17:42 14,6 C 13,9 C 10,0 C 92 % 1011,7 hPa 0,0 l/m 0 min 0 min 52 W/m 19,3 km/h (3 Bft) 97,62 %
20.10.2022 17:44 14,5 C 13,9 C 10,0 C 92 % 1011,7 hPa 0,0 l/m 2 min 0 min 53 W/m 9,7 km/h (2 Bft) 97,96 %
20.10.2022 17:46 14,5 C 13,9 C 10,0 C 92 % 1011,7 hPa 0,0 l/m 2 min 0 min 53 W/m 19,3 km/h (3 Bft) 95,92 %
20.10.2022 17:48 14,4 C 13,9 C 10,0 C 92 % 1011,6 hPa 0,0 l/m 2 min 0 min 53 W/m 19,3 km/h (3 Bft) 97,87 %
20.10.2022 17:50 14,4 C 13,9 C 10,0 C 93 % 1011,6 hPa 0,0 l/m 2 min 0 min 50 W/m 19,3 km/h (3 Bft) 95,74 %
20.10.2022 17:52 14,4 C 13,9 C 10,0 C 93 % 1011,6 hPa 0,0 l/m 2 min 0 min 44 W/m 16,1 km/h (3 Bft) 95,24 %
20.10.2022 17:54 14,4 C 13,9 C 10,0 C 93 % 1011,6 hPa 0,0 l/m 0 min 0 min 39 W/m 16,1 km/h (3 Bft) 97,87 %
20.10.2022 17:56 14,4 C 13,9 C 10,0 C 93 % 1011,6 hPa 0,0 l/m 0 min 0 min 35 W/m 16,1 km/h (3 Bft) 95,74 %
20.10.2022 17:58 14,3 C 13,9 C 10,0 C 93 % 1011,6 hPa 0,0 l/m 0 min 0 min 31 W/m 16,1 km/h (3 Bft) 97,83 %
20.10.2022 18:00 14,3 C 13,3 C 10,0 C 93 % 1011,6 hPa 0,0 l/m 0 min 0 min 29 W/m 6,4 km/h (2 Bft) 96,00 %
20.10.2022 18:02 14,3 C 13,3 C 10,0 C 93 % 1011,6 hPa 0,0 l/m 0 min 0 min 28 W/m 6,4 km/h (2 Bft) 93,88 %
20.10.2022 18:04 14,3 C 13,3 C 10,0 C 93 % 1011,6 hPa 0,0 l/m 2 min 0 min 28 W/m 12,9 km/h (3 Bft) 93,62 %
20.10.2022 18:08 14,3 C 13,3 C 10,0 C 93 % 1011,6 hPa 0,0 l/m 4 min 0 min 25 W/m 19,3 km/h (3 Bft) 96,70 %
20.10.2022 18:10 14,3 C 13,3 C 10,0 C 93 % 1011,5 hPa 0,0 l/m 2 min 0 min 20 W/m 12,9 km/h (3 Bft) 93,88 %
20.10.2022 18:12 14,3 C 13,3 C 10,0 C 93 % 1011,5 hPa 0,0 l/m 0 min 0 min 18 W/m 12,9 km/h (3 Bft) 95,74 %
20.10.2022 18:14 14,3 C 13,3 C 10,0 C 93 % 1011,5 hPa 0,0 l/m 0 min 0 min 16 W/m 9,7 km/h (2 Bft) 92,86 %
20.10.2022 18:16 14,3 C 13,3 C 10,0 C 93 % 1011,5 hPa 0,0 l/m 0 min 0 min 16 W/m 9,7 km/h (2 Bft) 95,74 %
20.10.2022 18:18 14,2 C 13,3 C 10,0 C 93 % 1011,4 hPa 0,0 l/m 0 min 0 min 13 W/m 6,4 km/h (2 Bft) 95,74 %
20.10.2022 18:20 14,2 C 13,3 C 10,0 C 94 % 1011,3 hPa 0,0 l/m 0 min 0 min 12 W/m 12,9 km/h (3 Bft) 97,96 %
20.10.2022 18:22 14,1 C 13,3 C 10,0 C 94 % 1011,3 hPa 0,0 l/m 0 min 0 min 11 W/m 12,9 km/h (3 Bft) 93,88 %
20.10.2022 18:24 14,1 C 13,3 C 10,0 C 94 % 1011,4 hPa 0,0 l/m 0 min 0 min 9 W/m 16,1 km/h (3 Bft) 97,87 %
20.10.2022 18:26 14,1 C 13,3 C 10,0 C 94 % 1011,4 hPa 0,0 l/m 0 min 0 min 7 W/m 12,9 km/h (3 Bft) 95,74 %
20.10.2022 18:28 14,0 C 12,8 C 10,0 C 94 % 1011,4 hPa 0,0 l/m 0 min 0 min 5 W/m 12,9 km/h (3 Bft) 97,62 %
20.10.2022 18:30 14,0 C 12,8 C 10,0 C 94 % 1011,4 hPa 0,0 l/m 0 min 0 min 5 W/m 12,9 km/h (3 Bft) 98,00 %
20.10.2022 18:32 13,9 C 12,8 C 10,0 C 94 % 1011,4 hPa 0,0 l/m 0 min 0 min 5 W/m 12,9 km/h (3 Bft) 100,00 %
20.10.2022 18:34 13,9 C 12,8 C 10,0 C 94 % 1011,3 hPa 0,0 l/m 0 min 0 min 0 W/m 12,9 km/h (3 Bft) 100,00 %
20.10.2022 18:36 13,9 C 12,8 C 10,0 C 94 % 1011,2 hPa 0,0 l/m 0 min 0 min 0 W/m 12,9 km/h (3 Bft) 100,00 %
20.10.2022 18:38 13,9 C 12,8 C 9,4 C 94 % 1011,2 hPa 0,0 l/m 0 min 0 min 0 W/m 12,9 km/h (3 Bft) 100,00 %
20.10.2022 18:40 13,9 C 12,8 C 10,0 C 94 % 1011,2 hPa 0,0 l/m 0 min 0 min 0 W/m 12,9 km/h (3 Bft) 97,87 %
20.10.2022 18:42 13,8 C 12,8 C 9,4 C 94 % 1011,3 hPa 0,0 l/m 0 min 0 min 0 W/m 12,9 km/h (3 Bft) 100,00 %
20.10.2022 18:44 13,8 C 12,8 C 9,4 C 94 % 1011,3 hPa 0,0 l/m 0 min 0 min 0 W/m 12,9 km/h (3 Bft) 100,00 %
20.10.2022 18:46 13,8 C 12,8 C 9,4 C 94 % 1011,3 hPa 0,0 l/m 0 min 0 min 0 W/m 12,9 km/h (3 Bft) 100,00 %
20.10.2022 18:48 13,8 C 12,8 C 9,4 C 94 % 1011,4 hPa 0,0 l/m 0 min 0 min 0 W/m 19,3 km/h (3 Bft) 100,00 %
20.10.2022 18:50 13,8 C 12,8 C 9,4 C 94 % 1011,3 hPa 0,0 l/m 0 min 0 min 0 W/m 6,4 km/h (2 Bft) 100,00 %
20.10.2022 18:52 13,8 C 12,8 C 9,4 C 94 % 1011,3 hPa 0,0 l/m 0 min 0 min 0 W/m 12,9 km/h (3 Bft) 97,87 %
20.10.2022 18:54 13,7 C 12,8 C 9,4 C 94 % 1011,3 hPa 0,0 l/m 0 min 0 min 0 W/m 12,9 km/h (3 Bft) 100,00 %
20.10.2022 18:56 13,7 C 12,8 C 9,4 C 94 % 1011,4 hPa 0,0 l/m 0 min 0 min 0 W/m 12,9 km/h (3 Bft) 100,00 %
20.10.2022 18:58 13,7 C 12,8 C 9,4 C 94 % 1011,3 hPa 0,0 l/m 0 min 0 min 0 W/m 12,9 km/h (3 Bft) 100,00 %
20.10.2022 19:00 13,7 C 12,8 C 9,4 C 94 % 1011,4 hPa 0,0 l/m 0 min 0 min 0 W/m 12,9 km/h (3 Bft) 98,00 %
20.10.2022 19:02 13,7 C 12,8 C 9,4 C 95 % 1011,3 hPa 0,0 l/m 0 min 0 min 0 W/m 12,9 km/h (3 Bft) 100,00 %
20.10.2022 19:04 13,7 C 12,8 C 9,4 C 95 % 1011,4 hPa 0,0 l/m 0 min 0 min 0 W/m 12,9 km/h (3 Bft) 100,00 %
20.10.2022 19:06 13,6 C 12,8 C 9,4 C 95 % 1011,4 hPa 0,0 l/m 0 min 0 min 0 W/m 16,1 km/h (3 Bft) 97,96 %
20.10.2022 19:08 13,6 C 12,8 C 9,4 C 95 % 1011,4 hPa 0,0 l/m 0 min 0 min 0 W/m 12,9 km/h (3 Bft) 100,00 %
20.10.2022 19:10 13,6 C 12,8 C 9,4 C 95 % 1011,3 hPa 0,0 l/m 0 min 0 min 0 W/m 6,4 km/h (2 Bft) 100,00 %
20.10.2022 19:12 13,6 C 12,8 C 9,4 C 95 % 1011,3 hPa 0,0 l/m 0 min 0 min 0 W/m 12,9 km/h (3 Bft) 100,00 %
20.10.2022 19:14 13,6 C 12,8 C 9,4 C 95 % 1011,4 hPa 0,0 l/m 0 min 0 min 0 W/m 9,7 km/h (2 Bft) 100,00 %
20.10.2022 19:16 13,6 C 12,8 C 9,4 C 95 % 1011,4 hPa 0,0 l/m 0 min 0 min 0 W/m 6,4 km/h (2 Bft) 97,62 %
20.10.2022 19:18 13,6 C 12,8 C 9,4 C 95 % 1011,4 hPa 0,0 l/m 0 min 0 min 0 W/m 6,4 km/h (2 Bft) 97,96 %
20.10.2022 19:20 13,6 C 12,8 C 9,4 C 95 % 1011,3 hPa 0,0 l/m 0 min 0 min 0 W/m 9,7 km/h (2 Bft) 100,00 %
20.10.2022 19:22 13,5 C 12,8 C 9,4 C 95 % 1011,3 hPa 0,0 l/m 0 min 0 min 0 W/m 6,4 km/h (2 Bft) 97,87 %
20.10.2022 19:24 13,6 C 12,8 C 9,4 C 95 % 1011,3 hPa 0,0 l/m 0 min 0 min 0 W/m 12,9 km/h (3 Bft) 100,00 %
20.10.2022 19:26 13,5 C 12,8 C 9,4 C 95 % 1011,3 hPa 0,0 l/m 0 min 0 min 0 W/m 12,9 km/h (3 Bft) 100,00 %
20.10.2022 19:28 13,5 C 12,8 C 9,4 C 95 % 1011,4 hPa 0,0 l/m 0 min 0 min 0 W/m 12,9 km/h (3 Bft) 98,00 %
20.10.2022 19:30 13,5 C 12,8 C 9,4 C 95 % 1011,5 hPa 0,0 l/m 0 min 0 min 0 W/m 12,9 km/h (3 Bft) 97,96 %
20.10.2022 19:32 13,5 C 12,8 C 9,4 C 95 % 1011,5 hPa 0,0 l/m 0 min 0 min 0 W/m 19,3 km/h (3 Bft) 100,00 %
20.10.2022 19:34 13,5 C 12,8 C 9,4 C 95 % 1011,5 hPa 0,0 l/m 0 min 0 min 0 W/m 12,9 km/h (3 Bft) 100,00 %
20.10.2022 19:36 13,5 C 12,8 C 9,4 C 95 % 1011,4 hPa 0,0 l/m 0 min 0 min 0 W/m 16,1 km/h (3 Bft) 98,31 %
20.10.2022 19:38 13,5 C 12,8 C 9,4 C 95 % 1011,4 hPa 0,0 l/m 0 min 0 min 0 W/m 6,4 km/h (2 Bft) 100,00 %
20.10.2022 19:40 13,5 C 12,8 C 9,4 C 95 % 1011,4 hPa 0,0 l/m 0 min 0 min 0 W/m 12,9 km/h (3 Bft) 95,74 %
20.10.2022 19:42 13,5 C 12,8 C 9,4 C 95 % 1011,3 hPa 0,0 l/m 0 min 0 min 0 W/m 12,9 km/h (3 Bft) 95,65 %
20.10.2022 19:44 13,5 C 12,8 C 9,4 C 95 % 1011,3 hPa 0,0 l/m 0 min 0 min 0 W/m 6,4 km/h (2 Bft) 98,00 %
20.10.2022 19:46 13,4 C 12,8 C 9,4 C 95 % 1011,3 hPa 0,0 l/m 0 min 0 min 0 W/m 16,1 km/h (3 Bft) 95,92 %
20.10.2022 19:48 13,4 C 12,8 C 9,4 C 95 % 1011,3 hPa 0,0 l/m 0 min 0 min 0 W/m 9,7 km/h (2 Bft) 97,87 %
20.10.2022 19:50 13,5 C 12,8 C 9,4 C 95 % 1011,3 hPa 0,0 l/m 0 min 0 min 0 W/m 6,4 km/h (2 Bft) 95,74 %
20.10.2022 19:52 13,5 C 12,8 C 9,4 C 95 % 1011,3 hPa 0,0 l/m 0 min 0 min 0 W/m 9,7 km/h (2 Bft) 92,86 %
20.10.2022 19:54 13,4 C 12,8 C 10,0 C 95 % 1011,2 hPa 0,0 l/m 0 min 0 min 0 W/m 12,9 km/h (3 Bft) 97,96 %
20.10.2022 19:56 13,5 C 12,8 C 10,0 C 95 % 1011,2 hPa 0,0 l/m 0 min 0 min 0 W/m 9,7 km/h (2 Bft) 91,49 %
20.10.2022 19:58 13,5 C 12,8 C 10,0 C 95 % 1011,3 hPa 0,0 l/m 0 min 0 min 0 W/m 9,7 km/h (2 Bft) 93,88 %
20.10.2022 20:00 13,4 C 12,8 C 10,0 C 95 % 1011,2 hPa 0,0 l/m 0 min 0 min 0 W/m 6,4 km/h (2 Bft) 95,74 %
20.10.2022 20:02 13,4 C 12,8 C 9,4 C 95 % 1011,2 hPa 0,0 l/m 0 min 0 min 0 W/m 12,9 km/h (3 Bft) 95,24 %
20.10.2022 20:04 13,4 C 12,8 C 10,0 C 96 % 1011,3 hPa 0,0 l/m 0 min 0 min 0 W/m 12,9 km/h (3 Bft) 94,00 %
20.10.2022 20:06 13,4 C 12,8 C 10,0 C 96 % 1011,2 hPa 0,0 l/m 0 min 0 min 0 W/m 12,9 km/h (3 Bft) 95,65 %
20.10.2022 20:08 13,4 C 12,8 C 10,0 C 96 % 1011,2 hPa 0,0 l/m 0 min 0 min 0 W/m 9,7 km/h (2 Bft) 95,92 %
20.10.2022 20:10 13,4 C 12,8 C 10,0 C 96 % 1011,3 hPa 0,0 l/m 0 min 0 min 0 W/m 12,9 km/h (3 Bft) 93,62 %
20.10.2022 20:12 13,4 C 12,8 C 10,0 C 96 % 1011,3 hPa 0,0 l/m 0 min 0 min 0 W/m 25,7 km/h (4 Bft) 95,74 %
20.10.2022 20:14 13,4 C 12,8 C 10,0 C 96 % 1011,4 hPa 0,0 l/m 0 min 0 min 0 W/m 12,9 km/h (3 Bft) 92,86 %
20.10.2022 20:16 13,5 C 12,8 C 10,0 C 96 % 1011,4 hPa 0,0 l/m 0 min 0 min 0 W/m 19,3 km/h (3 Bft) 89,80 %
20.10.2022 20:18 13,5 C 12,8 C 10,0 C 96 % 1011,3 hPa 0,0 l/m 0 min 0 min 0 W/m 12,9 km/h (3 Bft) 91,84 %
20.10.2022 20:20 13,5 C 12,8 C 10,0 C 96 % 1011,3 hPa 0,0 l/m 0 min 0 min 0 W/m 16,1 km/h (3 Bft) 91,49 %
20.10.2022 20:22 13,5 C 12,8 C 10,0 C 96 % 1011,3 hPa 0,0 l/m 0 min 0 min 0 W/m 9,7 km/h (2 Bft) 93,62 %
20.10.2022 20:24 13,5 C 12,8 C 10,0 C 96 % 1011,2 hPa 0,0 l/m 0 min 0 min 0 W/m 12,9 km/h (3 Bft) 93,62 %
20.10.2022 20:26 13,5 C 12,8 C 10,0 C 96 % 1011,2 hPa 0,0 l/m 0 min 0 min 0 W/m 9,7 km/h (2 Bft) 92,86 %
20.10.2022 20:28 13,5 C 12,8 C 10,0 C 96 % 1011,1 hPa 0,0 l/m 0 min 0 min 0 W/m 19,3 km/h (3 Bft) 93,88 %
20.10.2022 20:30 13,5 C 12,8 C 10,0 C 96 % 1011,1 hPa 0,0 l/m 0 min 0 min 0 W/m 22,5 km/h (4 Bft) 95,74 %
20.10.2022 20:32 13,5 C 12,8 C 10,0 C 96 % 1011,1 hPa 0,0 l/m 0 min 0 min 0 W/m 16,1 km/h (3 Bft) 95,92 %
20.10.2022 20:34 13,5 C 12,8 C 10,0 C 96 % 1011,0 hPa 0,0 l/m 0 min 0 min 0 W/m 22,5 km/h (4 Bft) 97,87 %
20.10.2022 20:36 13,5 C 12,8 C 10,0 C 96 % 1010,9 hPa 0,0 l/m 0 min 0 min 0 W/m 16,1 km/h (3 Bft) 98,15 %
20.10.2022 20:38 13,5 C 12,8 C 10,0 C 96 % 1010,9 hPa 0,0 l/m 0 min 0 min 0 W/m 9,7 km/h (2 Bft) 97,14 %
20.10.2022 20:40 13,6 C 12,8 C 10,0 C 96 % 1010,9 hPa 0,0 l/m 0 min 0 min 0 W/m 16,1 km/h (3 Bft) 97,87 %
20.10.2022 20:42 13,5 C 12,8 C 10,0 C 96 % 1010,9 hPa 0,0 l/m 0 min 0 min 0 W/m 12,9 km/h (3 Bft) 95,65 %
20.10.2022 20:44 13,6 C 12,8 C 10,0 C 96 % 1010,8 hPa 0,0 l/m 0 min 0 min 0 W/m 9,7 km/h (2 Bft) 98,00 %
20.10.2022 20:46 13,6 C 12,8 C 10,0 C 96 % 1010,8 hPa 0,0 l/m 0 min 0 min 0 W/m 22,5 km/h (4 Bft) 97,96 %
20.10.2022 20:48 13,6 C 12,8 C 10,0 C 96 % 1010,8 hPa 0,0 l/m 0 min 0 min 0 W/m 9,7 km/h (2 Bft) 97,87 %
20.10.2022 20:50 13,6 C 12,8 C 10,0 C 96 % 1010,8 hPa 0,0 l/m 0 min 0 min 0 W/m 16,1 km/h (3 Bft) 97,62 %
20.10.2022 20:52 13,6 C 12,8 C 10,0 C 96 % 1010,8 hPa 0,0 l/m 0 min 0 min 0 W/m 9,7 km/h (2 Bft) 93,88 %
20.10.2022 20:54 13,6 C 12,8 C 10,0 C 96 % 1010,9 hPa 0,0 l/m 0 min 0 min 0 W/m 12,9 km/h (3 Bft) 97,96 %
20.10.2022 20:56 13,6 C 12,8 C 10,0 C 96 % 1010,9 hPa 0,0 l/m 0 min 0 min 0 W/m 12,9 km/h (3 Bft) 97,87 %
20.10.2022 20:58 13,6 C 12,8 C 10,0 C 96 % 1010,9 hPa 0,0 l/m 0 min 0 min 0 W/m 12,9 km/h (3 Bft) 100,00 %
20.10.2022 21:00 13,6 C 12,8 C 10,0 C 96 % 1010,9 hPa 0,0 l/m 0 min 0 min 0 W/m 16,1 km/h (3 Bft) 100,00 %
20.10.2022 21:02 13,6 C 12,8 C 10,0 C 96 % 1010,9 hPa 0,0 l/m 0 min 0 min 0 W/m 16,1 km/h (3 Bft) 97,96 %
20.10.2022 21:04 13,6 C 12,8 C 10,0 C 96 % 1011,0 hPa 0,0 l/m 0 min 0 min 0 W/m 12,9 km/h (3 Bft) 100,00 %
20.10.2022 21:06 13,6 C 12,8 C 10,0 C 96 % 1010,9 hPa 0,0 l/m 0 min 0 min 0 W/m 16,1 km/h (3 Bft) 100,00 %
20.10.2022 21:08 13,6 C 12,8 C 10,0 C 96 % 1010,9 hPa 0,0 l/m 0 min 0 min 0 W/m 6,4 km/h (2 Bft) 97,14 %
20.10.2022 21:10 13,6 C 12,8 C 10,0 C 96 % 1010,9 hPa 0,0 l/m 0 min 0 min 0 W/m 9,7 km/h (2 Bft) 100,00 %
20.10.2022 21:12 13,6 C 12,8 C 10,0 C 96 % 1010,8 hPa 0,0 l/m 0 min 0 min 0 W/m 6,4 km/h (2 Bft) 100,00 %
20.10.2022 21:14 13,6 C 12,8 C 10,0 C 96 % 1010,8 hPa 0,0 l/m 0 min 0 min 0 W/m 16,1 km/h (3 Bft) 100,00 %
20.10.2022 21:16 13,5 C 12,8 C 10,0 C 96 % 1010,8 hPa 0,0 l/m 0 min 0 min 0 W/m 6,4 km/h (2 Bft) 100,00 %
20.10.2022 21:18 13,5 C 12,8 C 10,0 C 96 % 1010,7 hPa 0,0 l/m 0 min 0 min 0 W/m 12,9 km/h (3 Bft) 100,00 %
20.10.2022 21:20 13,6 C 12,8 C 10,0 C 96 % 1010,7 hPa 0,0 l/m 0 min 0 min 0 W/m 6,4 km/h (2 Bft) 100,00 %
20.10.2022 21:22 13,5 C 12,8 C 10,0 C 96 % 1010,7 hPa 0,0 l/m 0 min 0 min 0 W/m 12,9 km/h (3 Bft) 96,00 %
20.10.2022 21:24 13,5 C 12,8 C 10,0 C 96 % 1010,7 hPa 0,0 l/m 0 min 0 min 0 W/m 12,9 km/h (3 Bft) 100,00 %
20.10.2022 21:26 13,5 C 12,8 C 10,0 C 96 % 1010,7 hPa 0,0 l/m 0 min 0 min 0 W/m 9,7 km/h (2 Bft) 100,00 %
20.10.2022 21:28 13,5 C 12,8 C 10,0 C 96 % 1010,6 hPa 0,0 l/m 0 min 0 min 0 W/m 16,1 km/h (3 Bft) 100,00 %
20.10.2022 21:30 13,5 C 12,8 C 10,0 C 96 % 1010,5 hPa 0,0 l/m 0 min 0 min 0 W/m 12,9 km/h (3 Bft) 100,00 %
20.10.2022 21:32 13,5 C 12,8 C 10,0 C 96 % 1010,5 hPa 0,0 l/m 0 min 0 min 0 W/m 16,1 km/h (3 Bft) 100,00 %
20.10.2022 21:34 13,5 C 12,8 C 10,0 C 96 % 1010,5 hPa 0,0 l/m 0 min 0 min 0 W/m 16,1 km/h (3 Bft) 100,00 %
20.10.2022 21:36 13,5 C 12,8 C 10,0 C 96 % 1010,4 hPa 0,0 l/m 0 min 0 min 0 W/m 22,5 km/h (4 Bft) 98,11 %
20.10.2022 21:38 13,5 C 12,8 C 10,0 C 96 % 1010,5 hPa 0,0 l/m 0 min 0 min 0 W/m 9,7 km/h (2 Bft) 100,00 %
20.10.2022 21:40 13,5 C 12,8 C 10,0 C 96 % 1010,6 hPa 0,0 l/m 0 min 0 min 0 W/m 19,3 km/h (3 Bft) 100,00 %
20.10.2022 21:42 13,5 C 12,8 C 10,0 C 96 % 1010,5 hPa 0,0 l/m 0 min 0 min 0 W/m 12,9 km/h (3 Bft) 100,00 %
20.10.2022 21:44 13,5 C 12,8 C 10,0 C 96 % 1010,4 hPa 0,0 l/m 0 min 0 min 0 W/m 6,4 km/h (2 Bft) 97,96 %
20.10.2022 21:46 13,5 C 12,8 C 10,0 C 96 % 1010,5 hPa 0,0 l/m 0 min 0 min 0 W/m 12,9 km/h (3 Bft) 100,00 %
20.10.2022 21:48 13,5 C 12,8 C 10,0 C 96 % 1010,5 hPa 0,0 l/m 0 min 0 min 0 W/m 6,4 km/h (2 Bft) 100,00 %
20.10.2022 21:50 13,5 C 12,8 C 10,0 C 96 % 1010,5 hPa 0,0 l/m 0 min 0 min 0 W/m 16,1 km/h (3 Bft) 97,62 %
20.10.2022 21:52 13,5 C 12,8 C 10,0 C 96 % 1010,4 hPa 0,0 l/m 0 min 0 min 0 W/m 12,9 km/h (3 Bft) 97,83 %
20.10.2022 21:54 13,5 C 12,8 C 10,0 C 96 % 1010,4 hPa 0,0 l/m 0 min 0 min 0 W/m 12,9 km/h (3 Bft) 98,00 %
20.10.2022 21:56 13,5 C 12,8 C 10,0 C 96 % 1010,4 hPa 0,0 l/m 0 min 0 min 0 W/m 6,4 km/h (2 Bft) 97,96 %
20.10.2022 21:58 13,4 C 12,8 C 10,0 C 96 % 1010,2 hPa 0,0 l/m 0 min 0 min 0 W/m 6,4 km/h (2 Bft) 97,87 %
20.10.2022 22:00 13,4 C 12,8 C 10,0 C 96 % 1010,2 hPa 0,0 l/m 0 min 0 min 0 W/m 12,9 km/h (3 Bft) 97,87 %
20.10.2022 22:02 13,4 C 12,8 C 10,0 C 96 % 1010,1 hPa 0,0 l/m 0 min 0 min 0 W/m 12,9 km/h (3 Bft) 95,74 %
20.10.2022 22:04 13,4 C 12,8 C 10,0 C 96 % 1010,1 hPa 0,0 l/m 0 min 0 min 0 W/m 12,9 km/h (3 Bft) 97,56 %
20.10.2022 22:06 13,4 C 12,8 C 10,0 C 96 % 1010,1 hPa 0,0 l/m 0 min 0 min 0 W/m 16,1 km/h (3 Bft) 98,31 %
20.10.2022 22:08 13,4 C 12,8 C 10,0 C 96 % 1010,1 hPa 0,0 l/m 0 min 0 min 0 W/m 12,9 km/h (3 Bft) 97,14 %
20.10.2022 22:10 13,4 C 12,8 C 10,0 C 96 % 1010,0 hPa 0,0 l/m 0 min 0 min 0 W/m 6,4 km/h (2 Bft) 97,87 %
20.10.2022 22:12 13,4 C 12,8 C 10,0 C 96 % 1009,9 hPa 0,0 l/m 0 min 0 min 0 W/m 16,1 km/h (3 Bft) 98,00 %
20.10.2022 22:14 13,4 C 12,8 C 10,0 C 96 % 1009,8 hPa 0,0 l/m 0 min 0 min 0 W/m 19,3 km/h (3 Bft) 97,96 %
20.10.2022 22:16 13,4 C 12,8 C 10,0 C 96 % 1009,8 hPa 0,0 l/m 0 min 0 min 0 W/m 9,7 km/h (2 Bft) 97,83 %
20.10.2022 22:18 13,4 C 12,8 C 10,0 C 96 % 1009,9 hPa 0,0 l/m 0 min 0 min 0 W/m 16,1 km/h (3 Bft) 97,62 %
20.10.2022 22:20 13,4 C 12,8 C 10,0 C 96 % 1009,8 hPa 0,0 l/m 0 min 0 min 0 W/m 12,9 km/h (3 Bft) 98,00 %
20.10.2022 22:22 13,4 C 12,8 C 10,0 C 96 % 1009,9 hPa 0,0 l/m 0 min 0 min 0 W/m 12,9 km/h (3 Bft) 100,00 %
20.10.2022 22:24 13,4 C 12,8 C 10,0 C 96 % 1009,9 hPa 0,0 l/m 0 min 0 min 0 W/m 12,9 km/h (3 Bft) 100,00 %
20.10.2022 22:26 13,4 C 12,8 C 10,0 C 96 % 1009,9 hPa 0,0 l/m 0 min 0 min 0 W/m 6,4 km/h (2 Bft) 100,00 %
20.10.2022 22:28 13,4 C 12,8 C 10,0 C 96 % 1009,9 hPa 0,0 l/m 0 min 0 min 0 W/m 6,4 km/h (2 Bft) 100,00 %
20.10.2022 22:30 13,4 C 12,8 C 10,0 C 96 % 1010,0 hPa 0,0 l/m 0 min 0 min 0 W/m 12,9 km/h (3 Bft) 97,96 %
20.10.2022 22:32 13,4 C 12,8 C 10,0 C 96 % 1010,1 hPa 0,0 l/m 0 min 0 min 0 W/m 6,4 km/h (2 Bft) 100,00 %
20.10.2022 22:34 13,4 C 12,8 C 10,0 C 96 % 1010,1 hPa 0,0 l/m 0 min 0 min 0 W/m 16,1 km/h (3 Bft) 97,62 %
20.10.2022 22:36 13,4 C 12,8 C 10,0 C 96 % 1010,2 hPa 0,0 l/m 0 min 0 min 0 W/m 12,9 km/h (3 Bft) 98,00 %
20.10.2022 22:38 13,4 C 12,8 C 10,0 C 96 % 1010,1 hPa 0,0 l/m 0 min 0 min 0 W/m 6,4 km/h (2 Bft) 97,83 %
20.10.2022 22:40 13,4 C 12,8 C 9,4 C 96 % 1009,9 hPa 0,0 l/m 0 min 0 min 0 W/m 3,2 km/h (1 Bft) 97,87 %
20.10.2022 22:42 13,4 C 12,2 C 9,4 C 96 % 1009,9 hPa 0,0 l/m 0 min 0 min 0 W/m 12,9 km/h (3 Bft) 93,88 %
20.10.2022 22:44 13,3 C 12,2 C 9,4 C 96 % 1009,9 hPa 0,0 l/m 0 min 0 min 0 W/m 12,9 km/h (3 Bft) 97,87 %
20.10.2022 22:46 13,3 C 12,2 C 9,4 C 96 % 1009,9 hPa 0,0 l/m 0 min 0 min 0 W/m 9,7 km/h (2 Bft) 97,62 %
20.10.2022 22:48 13,3 C 12,8 C 10,0 C 96 % 1009,9 hPa 0,0 l/m 0 min 0 min 0 W/m 16,1 km/h (3 Bft) 98,00 %
20.10.2022 22:50 13,3 C 12,8 C 10,0 C 96 % 1009,9 hPa 0,0 l/m 0 min 0 min 0 W/m 9,7 km/h (2 Bft) 95,65 %
20.10.2022 22:52 13,3 C 12,8 C 10,0 C 96 % 1009,8 hPa 0,0 l/m 0 min 0 min 0 W/m 6,4 km/h (2 Bft) 95,74 %
20.10.2022 22:54 13,3 C 12,8 C 10,0 C 96 % 1009,8 hPa 0,0 l/m 0 min 0 min 0 W/m 6,4 km/h (2 Bft) 95,92 %
20.10.2022 22:56 13,3 C 12,8 C 10,0 C 96 % 1009,8 hPa 0,0 l/m 0 min 0 min 0 W/m 12,9 km/h (3 Bft) 95,74 %
20.10.2022 22:58 13,3 C 12,8 C 10,0 C 96 % 1009,8 hPa 0,0 l/m 0 min 0 min 0 W/m 16,1 km/h (3 Bft) 95,24 %
20.10.2022 23:00 13,3 C 12,8 C 10,0 C 96 % 1009,9 hPa 0,0 l/m 0 min 0 min 0 W/m 9,7 km/h (2 Bft) 96,00 %
20.10.2022 23:02 13,3 C 12,8 C 10,0 C 96 % 1009,8 hPa 0,0 l/m 0 min 0 min 0 W/m 19,3 km/h (3 Bft) 95,92 %
20.10.2022 23:04 13,3 C 12,8 C 10,0 C 96 % 1009,8 hPa 0,0 l/m 0 min 0 min 0 W/m 12,9 km/h (3 Bft) 93,62 %
20.10.2022 23:06 13,3 C 12,8 C 10,0 C 96 % 1009,9 hPa 0,0 l/m 0 min 0 min 0 W/m 6,4 km/h (2 Bft) 93,62 %
20.10.2022 23:08 13,3 C 12,8 C 10,0 C 96 % 1009,9 hPa 0,0 l/m 0 min 0 min 0 W/m 9,7 km/h (2 Bft) 97,87 %
20.10.2022 23:10 13,3 C 12,8 C 10,0 C 97 % 1009,8 hPa 0,0 l/m 0 min 0 min 0 W/m 12,9 km/h (3 Bft) 95,74 %
20.10.2022 23:12 13,3 C 12,8 C 10,0 C 97 % 1009,8 hPa 0,0 l/m 0 min 0 min 0 W/m 12,9 km/h (3 Bft) 94,29 %
20.10.2022 23:14 13,4 C 12,8 C 10,0 C 97 % 1009,9 hPa 0,0 l/m 0 min 0 min 0 W/m 9,7 km/h (2 Bft) 95,74 %
20.10.2022 23:16 13,4 C 12,8 C 10,0 C 97 % 1009,8 hPa 0,0 l/m 0 min 0 min 0 W/m 12,9 km/h (3 Bft) 94,55 %
20.10.2022 23:18 13,4 C 12,8 C 10,0 C 97 % 1009,9 hPa 0,0 l/m 0 min 0 min 0 W/m 12,9 km/h (3 Bft) 96,00 %
20.10.2022 23:20 13,4 C 12,8 C 10,0 C 97 % 1009,9 hPa 0,0 l/m 0 min 0 min 0 W/m 6,4 km/h (2 Bft) 95,74 %
20.10.2022 23:22 13,4 C 12,8 C 10,0 C 97 % 1009,8 hPa 0,0 l/m 0 min 0 min 0 W/m 9,7 km/h (2 Bft) 94,29 %
20.10.2022 23:24 13,4 C 12,8 C 10,0 C 97 % 1009,9 hPa 0,0 l/m 0 min 0 min 0 W/m 9,7 km/h (2 Bft) 96,36 %
20.10.2022 23:26 13,4 C 12,8 C 10,0 C 97 % 1009,9 hPa 0,0 l/m 0 min 0 min 0 W/m 9,7 km/h (2 Bft) 96,00 %
20.10.2022 23:28 13,4 C 12,8 C 10,0 C 97 % 1009,9 hPa 0,0 l/m 0 min 0 min 0 W/m 19,3 km/h (3 Bft) 97,87 %
20.10.2022 23:30 13,4 C 12,8 C 10,0 C 97 % 1009,9 hPa 0,0 l/m 0 min 0 min 0 W/m 6,4 km/h (2 Bft) 97,14 %
20.10.2022 23:32 13,4 C 12,8 C 10,0 C 97 % 1009,9 hPa 0,0 l/m 0 min 0 min 0 W/m 9,7 km/h (2 Bft) 94,64 %
20.10.2022 23:34 13,4 C 12,8 C 10,0 C 97 % 1010,0 hPa 0,0 l/m 0 min 0 min 0 W/m 6,4 km/h (2 Bft) 97,96 %
20.10.2022 23:36 13,4 C 12,8 C 10,0 C 97 % 1010,0 hPa 0,0 l/m 0 min 0 min 0 W/m 9,7 km/h (2 Bft) 95,83 %
20.10.2022 23:38 13,4 C 12,8 C 10,0 C 97 % 1009,9 hPa 0,0 l/m 0 min 0 min 0 W/m 12,9 km/h (3 Bft) 97,83 %
20.10.2022 23:40 13,4 C 12,8 C 10,0 C 97 % 1009,9 hPa 0,0 l/m 0 min 0 min 0 W/m 6,4 km/h (2 Bft) 100,00 %
20.10.2022 23:42 13,4 C 12,8 C 10,0 C 97 % 1009,9 hPa 0,0 l/m 0 min 0 min 0 W/m 12,9 km/h (3 Bft) 98,18 %
20.10.2022 23:44 13,5 C 12,8 C 10,0 C 97 % 1009,9 hPa 0,0 l/m 0 min 0 min 0 W/m 12,9 km/h (3 Bft) 98,00 %
20.10.2022 23:46 13,5 C 12,8 C 10,0 C 97 % 1009,9 hPa 0,0 l/m 0 min 0 min 0 W/m 19,3 km/h (3 Bft) 97,87 %
20.10.2022 23:48 13,5 C 12,8 C 10,0 C 97 % 1010,0 hPa 0,0 l/m 0 min 0 min 0 W/m 9,7 km/h (2 Bft) 97,14 %
20.10.2022 23:50 13,5 C 12,8 C 10,0 C 97 % 1010,0 hPa 0,0 l/m 0 min 0 min 0 W/m 16,1 km/h (3 Bft) 96,36 %
20.10.2022 23:52 13,5 C 12,8 C 10,0 C 97 % 1010,0 hPa 0,0 l/m 0 min 0 min 0 W/m 12,9 km/h (3 Bft) 98,00 %
20.10.2022 23:54 13,5 C 12,8 C 10,0 C 97 % 1009,9 hPa 0,0 l/m 0 min 0 min 0 W/m 12,9 km/h (3 Bft) 93,62 %
20.10.2022 23:56 13,6 C 12,8 C 10,0 C 97 % 1009,9 hPa 0,0 l/m 0 min 0 min 0 W/m 9,7 km/h (2 Bft) 97,87 %
20.10.2022 23:58 13,6 C 12,8 C 10,0 C 97 % 1009,9 hPa 0,0 l/m 0 min 0 min 0 W/m 12,9 km/h (3 Bft) 97,14 %
_ Min-Zeit 01:04 00:00 01:08 11:48 22:14 - - - - 00:04 07:18
Minimum _ 10,7 C 10,0 C 6,7 C 85 % 1009,8 hPa - - - - 3,2 km/h (1 Bft) 55,32 %
_ Max-Zeit 17:02 16:22 11:38 14:42 00:00 13:14 18:08 12:08 16:08 12:08 00:30
Maximum _ 14,8 C 15,0 C 10,0 C 97 % 1020,3 hPa 0,2 l/m 4 min 4 min 386 W/m 35,4 km/h
S-SO (5 Bft)
100,00 %
Durchschnitt _ 12,6 C 12,0 C 8,7 C 92 % 1013,9 hPa #1,6 l/m #1:36 h #1:34 h 108 W/m 14,8 km/h (3 Bft) 96,43 %
© 2022 W. Hausmann